| time (UTC) | temp F | wind direction | speed knots | gust knots | rain 1hr in | rain 24hr in | rain mn in | humidity % | barometer mb |
| 20260506084903 | 75 | 151 | 0.9 | 3.5 | 0.00 | 1.28 | 0.00 | 100 | 1005.9 |
| 20260506084803 | 75 | 142 | 0.9 | 3.5 | 0.00 | 1.28 | 0.00 | 100 | 1005.9 |
| 20260506084703 | 75 | 158 | 0.0 | 2.6 | 0.00 | 1.28 | 0.00 | 100 | 1005.9 |
| 20260506084603 | 75 | 158 | 0.0 | 2.6 | 0.00 | 1.28 | 0.00 | 100 | 1005.9 |
| 20260506084504 | 75 | 158 | 0.9 | 2.6 | 0.00 | 1.28 | 0.00 | 100 | 1005.9 |
| 20260506084402 | 75 | 158 | 0.9 | 2.6 | 0.00 | 1.28 | 0.00 | 100 | 1005.9 |
| 20260506084302 | 75 | 159 | 1.7 | 2.6 | 0.00 | 1.28 | 0.00 | 100 | 1005.9 |
| 20260506084203 | 75 | 159 | 1.7 | 2.6 | 0.00 | 1.28 | 0.00 | 100 | 1005.9 |
| 20260506084103 | 75 | 131 | 0.0 | 2.6 | 0.00 | 1.28 | 0.00 | 100 | 1005.9 |
| 20260506084003 | 75 | 125 | 0.9 | 2.6 | 0.00 | 1.28 | 0.00 | 100 | 1005.9 |
| 20260506083903 | 75 | 125 | 0.9 | 2.6 | 0.00 | 1.28 | 0.00 | 100 | 1005.9 |
| 20260506083803 | 75 | 125 | 0.9 | 2.6 | 0.00 | 1.28 | 0.00 | 100 | 1005.9 |
| 20260506083703 | 75 | 125 | 0.9 | 2.6 | 0.00 | 1.28 | 0.00 | 100 | 1005.9 |
| 20260506083604 | 75 | 152 | 0.9 | 2.6 | 0.00 | 1.28 | 0.00 | 100 | 1005.9 |
| 20260506083503 | 75 | 141 | 1.7 | 2.6 | 0.00 | 1.28 | 0.00 | 100 | 1005.9 |
| 20260506083403 | 76 | 124 | 0.9 | 2.6 | 0.00 | 1.28 | 0.00 | 100 | 1005.9 |
| 20260506083304 | 76 | 145 | 0.0 | 0.0 | 0.00 | 1.28 | 0.00 | 100 | 1006.0 |
| 20260506083203 | 76 | 142 | 0.0 | 0.0 | 0.00 | 1.28 | 0.00 | 100 | 1006.1 |
| 20260506083102 | 76 | 135 | 0.0 | 0.0 | 0.00 | 1.28 | 0.00 | 100 | 1006.1 |
| 20260506083002 | 76 | 113 | 0.0 | 0.0 | 0.00 | 1.28 | 0.00 | 100 | 1006.1 |
| 20260506082902 | 76 | 144 | 0.0 | 0.0 | 0.00 | 1.28 | 0.00 | 100 | 1006.1 |
| 20260506082803 | 76 | 144 | 0.0 | 0.0 | 0.00 | 1.28 | 0.00 | 100 | 1006.1 |
| 20260506082703 | 76 | 144 | 0.0 | 0.0 | 0.00 | 1.28 | 0.00 | 100 | 1006.1 |
| 20260506082602 | 76 | 144 | 0.0 | 0.0 | 0.00 | 1.28 | 0.00 | 100 | 1006.1 |
| 20260506082503 | 76 | 144 | 0.0 | 0.0 | 0.00 | 1.28 | 0.00 | 100 | 1006.1 |
| 20260506082402 | 76 | 144 | 0.0 | 0.0 | 0.00 | 1.28 | 0.00 | 100 | 1006.1 |
| 20260506082305 | 76 | 158 | 0.0 | 0.9 | 0.00 | 1.28 | 0.00 | 100 | 1006.1 |
| 20260506082202 | 76 | 157 | 0.0 | 1.7 | 0.00 | 1.28 | 0.00 | 100 | 1006.1 |
| 20260506082104 | 76 | 161 | 0.0 | 1.7 | 0.00 | 1.28 | 0.00 | 100 | 1006.1 |
| 20260506082004 | 76 | 161 | 0.0 | 1.7 | 0.00 | 1.28 | 0.00 | 100 | 1006.1 |
| 20260506081902 | 76 | 161 | 0.0 | 1.7 | 0.00 | 1.28 | 0.00 | 100 | 1006.1 |
| 20260506081803 | 76 | 162 | 0.0 | 2.6 | 0.00 | 1.28 | 0.00 | 100 | 1006.1 |
| 20260506081702 | 76 | 162 | 0.0 | 2.6 | 0.00 | 1.28 | 0.00 | 100 | 1006.2 |
| 20260506081601 | 76 | 162 | 0.0 | 2.6 | 0.00 | 1.28 | 0.00 | 100 | 1006.2 |
| 20260506081504 | 76 | 161 | 0.0 | 2.6 | 0.00 | 1.28 | 0.00 | 100 | 1006.3 |
| 20260506081403 | 76 | 161 | 0.9 | 2.6 | 0.00 | 1.28 | 0.00 | 100 | 1006.3 |
| 20260506081303 | 76 | 162 | 1.7 | 4.3 | 0.00 | 1.28 | 0.00 | 100 | 1006.4 |
| 20260506081203 | 76 | 164 | 0.9 | 4.3 | 0.00 | 1.28 | 0.00 | 100 | 1006.4 |
| 20260506081102 | 76 | 157 | 0.0 | 4.3 | 0.00 | 1.28 | 0.00 | 100 | 1006.4 |
| 20260506081005 | 76 | 158 | 0.9 | 4.3 | 0.00 | 1.28 | 0.00 | 100 | 1006.3 |
| 20260506080902 | 76 | 158 | 0.9 | 4.3 | 0.00 | 1.28 | 0.00 | 100 | 1006.4 |
| 20260506080803 | 76 | 164 | 0.9 | 4.3 | 0.00 | 1.28 | 0.00 | 100 | 1006.3 |
| 20260506080703 | 76 | 164 | 0.9 | 4.3 | 0.00 | 1.28 | 0.00 | 100 | 1006.4 |
| 20260506080603 | 76 | 175 | 0.9 | 4.3 | 0.00 | 1.28 | 0.00 | 100 | 1006.3 |
| 20260506080503 | 76 | 159 | 0.9 | 4.3 | 0.00 | 1.28 | 0.00 | 100 | 1006.3 |
| 20260506080403 | 76 | 161 | 1.7 | 4.3 | 0.00 | 1.28 | 0.00 | 100 | 1006.2 |
| 20260506080302 | 76 | 157 | 0.9 | 2.6 | 0.00 | 1.28 | 0.00 | 100 | 1006.3 |
| 20260506080203 | 76 | 165 | 0.9 | 2.6 | 0.00 | 1.28 | 0.00 | 100 | 1006.3 |
| 20260506073504 | 76 | 162 | 0.0 | 2.6 | 0.00 | 1.28 | 0.00 | 100 | 1006.6 |
| 20260506073403 | 76 | 162 | 0.0 | 2.6 | 0.00 | 1.28 | 0.00 | 100 | 1006.7 |
| 20260506073302 | 76 | 161 | 0.0 | 2.6 | 0.00 | 1.28 | 0.00 | 100 | 1006.7 |
| 20260506073203 | 76 | 161 | 1.7 | 2.6 | 0.00 | 1.28 | 0.00 | 100 | 1006.7 |
| 20260506073102 | 76 | 161 | 0.9 | 2.6 | 0.00 | 1.28 | 0.00 | 100 | 1006.7 |
| 20260506073004 | 76 | 169 | 0.0 | 2.6 | 0.00 | 1.28 | 0.00 | 100 | 1006.7 |
| 20260506072903 | 76 | 168 | 0.9 | 2.6 | 0.00 | 1.28 | 0.00 | 100 | 1006.7 |
| 20260506072804 | 76 | 168 | 0.9 | 2.6 | 0.00 | 1.28 | 0.00 | 100 | 1006.7 |
| 20260506072703 | 76 | 171 | 0.9 | 2.6 | 0.00 | 1.28 | 0.00 | 100 | 1006.7 |
| 20260506072602 | 76 | 173 | 0.9 | 2.6 | 0.00 | 1.28 | 0.00 | 100 | 1006.7 |
| 20260506072502 | 76 | 162 | 0.9 | 2.6 | 0.00 | 1.28 | 0.00 | 100 | 1006.7 |
| 20260506072403 | 76 | 162 | 0.9 | 2.6 | 0.00 | 1.28 | 0.00 | 100 | 1006.6 |
| 20260506072305 | 76 | 173 | 1.7 | 2.6 | 0.00 | 1.28 | 0.00 | 100 | 1006.7 |
| 20260506072203 | 76 | 135 | 0.9 | 2.6 | 0.00 | 1.28 | 0.00 | 100 | 1006.6 |
| 20260506072102 | 76 | 149 | 1.7 | 2.6 | 0.00 | 1.28 | 0.00 | 100 | 1006.6 |
| 20260506072003 | 76 | 168 | 0.9 | 2.6 | 0.00 | 1.28 | 0.00 | 100 | 1006.6 |
| 20260506071902 | 76 | 154 | 0.9 | 2.6 | 0.00 | 1.28 | 0.00 | 100 | 1006.6 |
| 20260506071802 | 76 | 157 | 0.9 | 2.6 | 0.00 | 1.28 | 0.00 | 100 | 1006.6 |
| 20260506071702 | 76 | 158 | 0.9 | 2.6 | 0.00 | 1.28 | 0.00 | 100 | 1006.6 |
| 20260506071604 | 76 | 161 | 0.9 | 2.6 | 0.00 | 1.28 | 0.00 | 100 | 1006.6 |
| 20260506071502 | 76 | 158 | 0.9 | 2.6 | 0.00 | 1.28 | 0.00 | 100 | 1006.6 |
| 20260506071402 | 76 | 158 | 0.9 | 2.6 | 0.00 | 1.28 | 0.00 | 100 | 1006.6 |
| 20260506071302 | 76 | 165 | 0.9 | 2.6 | 0.00 | 1.28 | 0.00 | 100 | 1006.7 |
| 20260506071204 | 76 | 165 | 2.6 | 2.6 | 0.00 | 1.28 | 0.00 | 100 | 1006.6 |
| 20260506071104 | 76 | 145 | 0.9 | 4.3 | 0.00 | 1.28 | 0.00 | 100 | 1006.6 |
| 20260506071004 | 76 | 145 | 0.9 | 4.3 | 0.00 | 1.28 | 0.00 | 100 | 1006.6 |
| 20260506070903 | 76 | 145 | 0.9 | 4.3 | 0.00 | 1.28 | 0.00 | 100 | 1006.6 |
| 20260506070803 | 76 | 145 | 0.9 | 4.3 | 0.00 | 1.28 | 0.00 | 100 | 1006.7 |
| 20260506070703 | 76 | 145 | 0.9 | 4.3 | 0.00 | 1.28 | 0.00 | 100 | 1006.7 |
| 20260506070603 | 76 | 145 | 0.9 | 4.3 | 0.00 | 1.28 | 0.00 | 100 | 1006.6 |
| 20260506070431 | 76 | 145 | 0.9 | 4.3 | 0.00 | 1.28 | 0.00 | 100 | 1006.6 |
| 20260506070332 | 77 | 144 | 1.7 | 4.3 | 0.00 | 1.28 | 0.00 | 100 | 1006.7 |
| 20260506070233 | 77 | 171 | 2.6 | 4.3 | 0.00 | 1.28 | 0.00 | 100 | 1006.7 |
| 20260506070132 | 77 | 164 | 2.6 | 4.3 | 0.00 | 1.28 | 0.00 | 100 | 1006.7 |
| 20260506062422 | 77 | 152 | 2.6 | 4.3 | 0.00 | 1.28 | 0.00 | 100 | 1006.9 |
| 20260506062321 | 77 | 159 | 1.7 | 4.3 | 0.00 | 1.28 | 0.00 | 100 | 1006.9 |
| 20260506062222 | 77 | 172 | 1.7 | 4.3 | 0.00 | 1.28 | 0.00 | 100 | 1006.9 |
| 20260506062122 | 77 | 180 | 1.7 | 4.3 | 0.00 | 1.28 | 0.00 | 100 | 1006.9 |
| 20260506062022 | 77 | 158 | 1.7 | 4.3 | 0.00 | 1.28 | 0.00 | 100 | 1006.9 |
| 20260506061921 | 77 | 178 | 1.7 | 4.3 | 0.00 | 1.28 | 0.00 | 100 | 1006.9 |
| 20260506061823 | 77 | 172 | 1.7 | 4.3 | 0.00 | 1.28 | 0.00 | 100 | 1006.9 |
| 20260506061723 | 77 | 172 | 0.9 | 3.5 | 0.00 | 1.28 | 0.00 | 100 | 1006.9 |
| 20260506061622 | 77 | 196 | 0.9 | 3.5 | 0.00 | 1.28 | 0.00 | 100 | 1007.0 |
| 20260506061522 | 77 | 197 | 1.7 | 3.5 | 0.00 | 1.28 | 0.00 | 100 | 1006.9 |
| 20260506061421 | 77 | 199 | 2.6 | 3.5 | 0.00 | 1.28 | 0.00 | 100 | 1006.9 |
| 20260506061322 | 77 | 165 | 1.7 | 2.6 | 0.00 | 1.28 | 0.00 | 100 | 1006.9 |
| 20260506061222 | 77 | 155 | 0.9 | 1.7 | 0.00 | 1.28 | 0.00 | 100 | 1007.0 |
| 20260506061122 | 77 | 155 | 0.9 | 1.7 | 0.00 | 1.28 | 0.00 | 100 | 1006.9 |
| 20260506061020 | 77 | 155 | 0.9 | 4.3 | 0.00 | 1.28 | 0.00 | 100 | 1006.9 |
| 20260506060920 | 77 | 155 | 0.9 | 4.3 | 0.00 | 1.28 | 0.00 | 100 | 1006.9 |
| 20260506060820 | 77 | 155 | 0.9 | 4.3 | 0.00 | 1.28 | 0.00 | 100 | 1006.9 |
| 20260506060720 | 77 | 155 | 0.9 | 4.3 | 0.00 | 1.28 | 0.00 | 100 | 1006.9 |
| 20260506060620 | 77 | 155 | 0.9 | 4.3 | 0.00 | 1.28 | 0.00 | 100 | 1006.9 |
| 20260506060520 | 77 | 155 | 0.9 | 4.3 | 0.00 | 1.28 | 0.00 | 100 | 1006.9 |
| 20260506060420 | 77 | 154 | 0.9 | 4.3 | 0.00 | 1.28 | 0.00 | 100 | 1006.9 |
| 20260506060320 | 77 | 157 | 0.9 | 4.3 | 0.00 | 1.28 | 0.00 | 100 | 1006.9 |
| 20260506060203 | 77 | 159 | 1.7 | 4.3 | 0.00 | 1.28 | 0.00 | 100 | 1006.9 |
| 20260506051401 | 77 | 188 | 5.2 | 5.2 | 0.00 | 1.28 | 0.00 | 100 | 1006.8 |
| 20260506051303 | 0 | 0.0 | 0.0 | 0.00 | 1.28 | 0.00 | 1006.9 | ||
| 20260506051203 | 77 | 176 | 1.7 | 0.9 | 0.00 | 1.28 | 0.00 | 100 | 1006.9 |
| 20260506051103 | 77 | 176 | 1.7 | 3.5 | 0.00 | 1.28 | 0.00 | 100 | 1006.8 |
| 20260506051002 | 77 | 176 | 1.7 | 4.3 | 0.00 | 1.28 | 0.00 | 100 | 1006.9 |
| 20260506050903 | 77 | 176 | 1.7 | 4.3 | 0.00 | 1.28 | 0.00 | 100 | 1006.9 |
| 20260506050803 | 77 | 176 | 1.7 | 4.3 | 0.00 | 1.28 | 0.00 | 100 | 1006.9 |
| 20260506050703 | 77 | 176 | 1.7 | 4.3 | 0.00 | 1.28 | 0.00 | 100 | 1006.9 |
| 20260506050603 | 77 | 176 | 1.7 | 4.3 | 0.00 | 1.28 | 0.00 | 100 | 1006.9 |
| 20260506050503 | 77 | 176 | 1.7 | 4.3 | 0.00 | 1.28 | 0.00 | 100 | 1007.0 |
| 20260506050403 | 77 | 176 | 1.7 | 4.3 | 0.00 | 1.28 | 0.00 | 100 | 1007.0 |
| 20260506050303 | 77 | 176 | 1.7 | 4.3 | 0.00 | 1.28 | 0.00 | 100 | 1007.0 |
| 20260506050204 | 77 | 210 | 1.7 | 4.3 | 0.00 | 1.28 | 0.00 | 100 | 1006.9 |
| 20260506045103 | 77 | 182 | 0.9 | 3.5 | 0.00 | 1.28 | 1.28 | 100 | 1006.9 |
| 20260506045004 | 77 | 159 | 1.7 | 5.2 | 0.00 | 1.28 | 1.28 | 100 | 1006.8 |
| 20260506044902 | 77 | 159 | 1.7 | 5.2 | 0.00 | 1.28 | 1.28 | 100 | 1006.8 |
| 20260506044803 | 77 | 113 | 0.9 | 5.2 | 0.00 | 1.28 | 1.28 | 100 | 1006.8 |
| 20260506044702 | 77 | 145 | 1.7 | 5.2 | 0.00 | 1.28 | 1.28 | 100 | 1006.8 |
| 20260506044603 | 77 | 121 | 0.9 | 5.2 | 0.00 | 1.28 | 1.28 | 100 | 1006.8 |
| 20260506044503 | 77 | 155 | 0.9 | 5.2 | 0.00 | 1.28 | 1.28 | 100 | 1006.9 |
| 20260506044402 | 77 | 180 | 1.7 | 5.2 | 0.00 | 1.28 | 1.28 | 100 | 1006.8 |
| 20260506044303 | 77 | 185 | 1.7 | 5.2 | 0.00 | 1.28 | 1.28 | 100 | 1006.9 |
| 20260506044203 | 77 | 155 | 1.7 | 5.2 | 0.00 | 1.28 | 1.28 | 100 | 1006.9 |
| 20260506044102 | 77 | 159 | 1.7 | 5.2 | 0.00 | 1.28 | 1.28 | 100 | 1006.8 |
| 20260506044003 | 77 | 145 | 1.7 | 5.2 | 0.00 | 1.28 | 1.28 | 100 | 1006.8 |
| 20260506043903 | 77 | 151 | 1.7 | 5.2 | 0.00 | 1.28 | 1.28 | 100 | 1006.8 |
| 20260506043803 | 77 | 151 | 1.7 | 5.2 | 0.00 | 1.28 | 1.28 | 100 | 1006.8 |
| 20260506043703 | 77 | 151 | 1.7 | 5.2 | 0.00 | 1.28 | 1.28 | 100 | 1006.9 |
| 20260506043604 | 77 | 151 | 1.7 | 5.2 | 0.00 | 1.28 | 1.28 | 100 | 1006.9 |
| 20260506043502 | 77 | 145 | 1.7 | 6.1 | 0.00 | 1.28 | 1.28 | 100 | 1006.8 |
| 20260506043403 | 77 | 149 | 0.9 | 6.1 | 0.00 | 1.28 | 1.28 | 100 | 1006.9 |
| 20260506043301 | 77 | 189 | 0.9 | 6.1 | 0.00 | 1.28 | 1.28 | 100 | 1006.8 |
| 20260506043202 | 77 | 193 | 0.9 | 6.1 | 0.00 | 1.28 | 1.28 | 100 | 1006.8 |
| 20260506043102 | 77 | 154 | 1.7 | 6.1 | 0.00 | 1.28 | 1.28 | 100 | 1006.9 |
| 20260506043004 | 77 | 162 | 1.7 | 6.1 | 0.00 | 1.28 | 1.28 | 100 | 1006.9 |
| 20260506042858 | 77 | 159 | 1.7 | 6.1 | 0.00 | 1.28 | 1.28 | 100 | 1006.9 |
| 20260506042753 | 77 | 164 | 1.7 | 6.1 | 0.00 | 1.28 | 1.28 | 100 | 1006.8 |
| 20260506042653 | 77 | 155 | 1.7 | 6.1 | 0.00 | 1.28 | 1.28 | 100 | 1006.9 |
| 20260506042535 | 77 | 197 | 1.7 | 4.3 | 0.00 | 1.28 | 1.28 | 100 | 1006.9 |
| 20260506042432 | 77 | 176 | 0.9 | 4.3 | 0.00 | 1.28 | 1.28 | 100 | 1006.9 |
| 20260506042332 | 77 | 197 | 2.6 | 4.3 | 0.00 | 1.28 | 1.28 | 100 | 1006.9 |
| 20260506042231 | 77 | 197 | 2.6 | 4.3 | 0.00 | 1.28 | 1.28 | 100 | 1006.9 |
| 20260506042132 | 77 | 197 | 2.6 | 4.3 | 0.00 | 1.28 | 1.28 | 100 | 1006.8 |
| 20260506042031 | 77 | 165 | 1.7 | 4.3 | 0.00 | 1.28 | 1.28 | 100 | 1006.8 |
| 20260506041932 | 77 | 157 | 1.7 | 4.3 | 0.00 | 1.28 | 1.28 | 100 | 1006.9 |
| 20260506041822 | 77 | 179 | 0.9 | 4.3 | 0.00 | 1.28 | 1.28 | 100 | 1006.8 |
| 20260506041713 | 77 | 168 | 0.9 | 4.3 | 0.00 | 1.28 | 1.28 | 100 | 1006.8 |
| 20260506041611 | 77 | 147 | 0.9 | 4.3 | 0.00 | 1.28 | 1.28 | 100 | 1006.8 |
| 20260506041512 | 77 | 145 | 0.9 | 4.3 | 0.00 | 1.28 | 1.28 | 100 | 1006.9 |
| 20260506041403 | 77 | 164 | 1.7 | 4.3 | 0.00 | 1.28 | 1.28 | 100 | 1006.9 |
| 20260506041303 | 77 | 133 | 1.7 | 4.3 | 0.00 | 1.28 | 1.28 | 100 | 1006.9 |
| 20260506041202 | 77 | 188 | 0.9 | 4.3 | 0.00 | 1.28 | 1.28 | 100 | 1006.8 |
| 20260506041102 | 77 | 149 | 1.7 | 4.3 | 0.00 | 1.28 | 1.28 | 100 | 1006.8 |
| 20260506041005 | 77 | 161 | 1.7 | 5.2 | 0.00 | 1.28 | 1.28 | 100 | 1006.8 |
| 20260506040902 | 77 | 141 | 0.9 | 5.2 | 0.00 | 1.28 | 1.28 | 100 | 1006.8 |
| 20260506040803 | 77 | 158 | 0.0 | 5.2 | 0.00 | 1.28 | 1.28 | 100 | 1006.8 |
| 20260506040703 | 77 | 114 | 0.9 | 5.2 | 0.00 | 1.28 | 1.28 | 100 | 1006.8 |
| 20260506040602 | 77 | 204 | 1.7 | 5.2 | 0.00 | 1.28 | 1.28 | 100 | 1006.8 |
| 20260506040505 | 77 | 168 | 0.9 | 5.2 | 0.00 | 1.28 | 1.28 | 100 | 1006.8 |
| 20260506040401 | 77 | 169 | 0.9 | 5.2 | 0.00 | 1.28 | 1.28 | 100 | 1006.7 |
| 20260506040304 | 77 | 147 | 0.9 | 5.2 | 0.00 | 1.28 | 1.28 | 100 | 1006.8 |
| 20260506040202 | 77 | 148 | 2.6 | 5.2 | 0.00 | 1.28 | 1.28 | 100 | 1006.8 |
| 20260506040004 | 77 | 161 | 2.6 | 5.2 | 0.00 | 1.28 | 1.28 | 100 | 1006.8 |
| 20260506035902 | 77 | 158 | 2.6 | 5.2 | 0.00 | 1.28 | 1.28 | 100 | 1006.7 |
| 20260506035803 | 77 | 118 | 0.9 | 3.5 | 0.00 | 1.28 | 1.28 | 100 | 1006.8 |
| 20260506035703 | 77 | 159 | 1.7 | 3.5 | 0.00 | 1.28 | 1.28 | 100 | 1006.8 |
| 20260506035603 | 77 | 159 | 1.7 | 4.3 | 0.00 | 1.28 | 1.28 | 100 | 1006.7 |
| 20260506035504 | 77 | 159 | 1.7 | 4.3 | 0.00 | 1.28 | 1.28 | 100 | 1006.7 |
| 20260506035403 | 77 | 159 | 1.7 | 4.3 | 0.00 | 1.28 | 1.28 | 100 | 1006.7 |
| 20260506035306 | 77 | 159 | 1.7 | 4.3 | 0.00 | 1.28 | 1.28 | 100 | 1006.7 |
| 20260506035203 | 77 | 159 | 1.7 | 4.3 | 0.00 | 1.28 | 1.28 | 100 | 1006.7 |
| 20260506035104 | 77 | 159 | 1.7 | 4.3 | 0.00 | 1.28 | 1.28 | 100 | 1006.7 |
| 20260506035003 | 77 | 159 | 1.7 | 4.3 | 0.00 | 1.28 | 1.28 | 100 | 1006.7 |
| 20260506034903 | 77 | 159 | 1.7 | 4.3 | 0.00 | 1.28 | 1.28 | 100 | 1006.7 |
| 20260506034802 | 77 | 127 | 1.7 | 6.1 | 0.00 | 1.28 | 1.28 | 100 | 1006.7 |
| 20260506034703 | 77 | 186 | 1.7 | 6.1 | 0.00 | 1.28 | 1.28 | 100 | 1006.7 |
| 20260506034604 | 77 | 182 | 1.7 | 6.1 | 0.00 | 1.28 | 1.28 | 100 | 1006.7 |
| 20260506034503 | 77 | 158 | 1.7 | 6.1 | 0.00 | 1.28 | 1.28 | 100 | 1006.6 |
| 20260506034403 | 77 | 152 | 1.7 | 6.1 | 0.00 | 1.28 | 1.28 | 100 | 1006.6 |
| 20260506034304 | 77 | 142 | 0.9 | 7.8 | 0.00 | 1.28 | 1.28 | 100 | 1006.6 |
| 20260506034203 | 77 | 116 | 0.9 | 7.8 | 0.00 | 1.28 | 1.28 | 100 | 1006.6 |
| 20260506034103 | 77 | 158 | 0.9 | 7.8 | 0.00 | 1.28 | 1.28 | 100 | 1006.7 |
| 20260506034003 | 77 | 186 | 2.6 | 7.8 | 0.00 | 1.28 | 1.28 | 100 | 1006.6 |
| 20260506033902 | 77 | 169 | 2.6 | 7.8 | 0.00 | 1.28 | 1.28 | 100 | 1006.7 |
| 20260506033803 | 77 | 216 | 1.7 | 7.8 | 0.00 | 1.28 | 1.28 | 100 | 1006.7 |
| 20260506033702 | 77 | 161 | 1.7 | 7.8 | 0.00 | 1.28 | 1.28 | 100 | 1006.6 |
| 20260506033604 | 78 | 169 | 1.7 | 7.8 | 0.00 | 1.28 | 1.28 | 100 | 1006.6 |
| 20260506033502 | 78 | 169 | 3.5 | 7.8 | 0.00 | 1.28 | 1.28 | 100 | 1006.6 |
| 20260506033403 | 78 | 161 | 2.6 | 7.8 | 0.00 | 1.28 | 1.28 | 100 | 1006.7 |
| 20260506033301 | 78 | 155 | 1.7 | 6.1 | 0.00 | 1.28 | 1.28 | 100 | 1006.6 |
| 20260506033204 | 78 | 158 | 2.6 | 6.1 | 0.00 | 1.28 | 1.28 | 100 | 1006.6 |
| 20260506033102 | 78 | 164 | 2.6 | 6.1 | 0.00 | 1.28 | 1.28 | 100 | 1006.6 |
| 20260506033005 | 78 | 124 | 2.6 | 6.1 | 0.00 | 1.28 | 1.28 | 100 | 1006.5 |
| 20260506032904 | 78 | 145 | 0.9 | 5.2 | 0.00 | 1.28 | 1.28 | 100 | 1006.6 |
| 20260506032803 | 78 | 125 | 0.9 | 5.2 | 0.00 | 1.28 | 1.28 | 100 | 1006.5 |
| 20260506032702 | 78 | 165 | 1.7 | 5.2 | 0.00 | 1.28 | 1.28 | 100 | 1006.4 |
| 20260506032602 | 78 | 148 | 0.9 | 5.2 | 0.00 | 1.28 | 1.28 | 100 | 1006.4 |
| 20260506032503 | 78 | 151 | 1.7 | 5.2 | 0.00 | 1.28 | 1.28 | 100 | 1006.5 |
| 20260506032403 | 78 | 149 | 2.6 | 6.1 | 0.00 | 1.28 | 1.28 | 100 | 1006.4 |
| 20260506032305 | 78 | 165 | 2.6 | 6.1 | 0.00 | 1.28 | 1.28 | 100 | 1006.4 |
| 20260506032202 | 78 | 130 | 0.9 | 6.1 | 0.00 | 1.28 | 1.28 | 100 | 1006.4 |
| 20260506032103 | 78 | 137 | 0.0 | 6.1 | 0.00 | 1.28 | 1.28 | 100 | 1006.4 |
| 20260506032005 | 78 | 135 | 0.0 | 6.1 | 0.00 | 1.28 | 1.28 | 100 | 1006.4 |
| 20260506031902 | 78 | 185 | 0.9 | 6.1 | 0.00 | 1.28 | 1.28 | 100 | 1006.4 |
| 20260506031802 | 78 | 140 | 1.7 | 6.1 | 0.00 | 1.28 | 1.28 | 100 | 1006.4 |
| 20260506031702 | 78 | 158 | 2.6 | 6.1 | 0.00 | 1.28 | 1.28 | 100 | 1006.4 |
| 20260506031602 | 78 | 154 | 2.6 | 6.1 | 0.00 | 1.28 | 1.28 | 100 | 1006.4 |
| 20260506031502 | 78 | 152 | 1.7 | 6.1 | 0.00 | 1.28 | 1.28 | 100 | 1006.4 |
| 20260506031403 | 78 | 157 | 0.9 | 6.1 | 0.00 | 1.28 | 1.28 | 100 | 1006.4 |
| 20260506031259 | 78 | 157 | 1.7 | 6.1 | 0.00 | 1.28 | 1.28 | 100 | 1006.4 |
| 20260506031155 | 78 | 157 | 0.9 | 6.1 | 0.00 | 1.28 | 1.28 | 100 | 1006.3 |
| 20260506031054 | 78 | 137 | 0.9 | 6.1 | 0.00 | 1.28 | 1.28 | 100 | 1006.3 |
| 20260506030949 | 78 | 152 | 1.7 | 6.1 | 0.00 | 1.28 | 1.28 | 100 | 1006.3 |
| 20260506030849 | 78 | 131 | 2.6 | 6.1 | 0.00 | 1.28 | 1.28 | 100 | 1006.3 |
| 20260506030746 | 78 | 161 | 1.7 | 6.1 | 0.00 | 1.28 | 1.28 | 100 | 1006.2 |
| 20260506030643 | 78 | 168 | 0.9 | 6.1 | 0.00 | 1.28 | 1.28 | 100 | 1006.3 |
| 20260506030530 | 78 | 171 | 1.7 | 6.1 | 0.00 | 1.28 | 1.28 | 100 | 1006.3 |
| 20260506030432 | 78 | 145 | 1.7 | 6.1 | 0.00 | 1.28 | 1.28 | 100 | 1006.2 |
| 20260506030332 | 78 | 164 | 1.7 | 6.1 | 0.00 | 1.28 | 1.28 | 100 | 1006.3 |
| 20260506030232 | 78 | 154 | 1.7 | 6.1 | 0.00 | 1.28 | 1.28 | 100 | 1006.3 |
| 20260506030122 | 78 | 111 | 1.7 | 6.1 | 0.00 | 1.28 | 1.28 | 100 | 1006.2 |
| 20260506030011 | 78 | 188 | 0.9 | 5.2 | 0.00 | 1.28 | 1.28 | 100 | 1006.2 |
| 20260506025908 | 78 | 193 | 0.9 | 5.2 | 0.00 | 1.28 | 1.28 | 100 | 1006.2 |
| 20260506025809 | 78 | 166 | 1.7 | 5.2 | 0.00 | 1.28 | 1.28 | 100 | 1006.2 |
| 20260506025710 | 78 | 159 | 0.9 | 5.2 | 0.00 | 1.28 | 1.28 | 100 | 1006.2 |
| 20260506025610 | 78 | 154 | 0.9 | 5.2 | 0.00 | 1.28 | 1.28 | 100 | 1006.1 |
| 20260506025509 | 78 | 173 | 0.9 | 5.2 | 0.00 | 1.28 | 1.28 | 100 | 1006.1 |
| 20260506025409 | 78 | 173 | 0.9 | 5.2 | 0.00 | 1.28 | 1.28 | 100 | 1006.1 |
| 20260506025309 | 78 | 173 | 0.9 | 5.2 | 0.00 | 1.28 | 1.28 | 100 | 1006.0 |
| 20260506025209 | 78 | 190 | 1.7 | 5.2 | 0.00 | 1.28 | 1.28 | 100 | 1006.1 |
| 20260506025110 | 78 | 157 | 1.7 | 5.2 | 0.00 | 1.28 | 1.28 | 100 | 1006.1 |
| 20260506025010 | 78 | 193 | 0.9 | 4.3 | 0.00 | 1.28 | 1.28 | 100 | 1006.0 |
| 20260506024907 | 78 | 159 | 1.7 | 4.3 | 0.00 | 1.28 | 1.28 | 100 | 1006.0 |
| 20260506024808 | 78 | 140 | 1.7 | 6.1 | 0.00 | 1.28 | 1.28 | 100 | 1006.0 |
| 20260506024709 | 78 | 145 | 0.9 | 6.1 | 0.00 | 1.28 | 1.28 | 100 | 1005.9 |
| 20260506024608 | 78 | 168 | 0.0 | 6.1 | 0.00 | 1.28 | 1.28 | 100 | 1006.0 |
| 20260506024510 | 78 | 157 | 0.0 | 6.1 | 0.00 | 1.28 | 1.28 | 100 | 1005.9 |
| 20260506024407 | 78 | 154 | 0.0 | 6.1 | 0.00 | 1.28 | 1.28 | 100 | 1006.0 |
| 20260506024309 | 78 | 155 | 0.9 | 6.1 | 0.00 | 1.28 | 1.28 | 100 | 1005.9 |
| 20260506024207 | 78 | 140 | 1.7 | 6.1 | 0.00 | 1.28 | 1.28 | 100 | 1005.9 |
| 20260506024109 | 78 | 162 | 0.9 | 6.1 | 0.00 | 1.28 | 1.28 | 100 | 1005.9 |
| 20260506024009 | 78 | 179 | 1.7 | 6.1 | 0.00 | 1.28 | 1.28 | 100 | 1005.9 |
| 20260506023909 | 78 | 226 | 1.7 | 6.1 | 0.00 | 1.28 | 1.28 | 100 | 1005.9 |
| 20260506023809 | 78 | 192 | 1.7 | 6.1 | 0.00 | 1.28 | 1.28 | 100 | 1005.9 |
| 20260506023709 | 78 | 134 | 1.7 | 6.1 | 0.00 | 1.28 | 1.28 | 100 | 1005.9 |
| 20260506023609 | 78 | 125 | 1.7 | 6.1 | 0.00 | 1.28 | 1.28 | 100 | 1005.8 |
| 20260506023509 | 78 | 176 | 1.7 | 6.1 | 0.00 | 1.28 | 1.28 | 100 | 1005.8 |
| 20260506023407 | 78 | 169 | 2.6 | 6.1 | 0.00 | 1.28 | 1.28 | 100 | 1005.8 |
| 20260506023308 | 78 | 144 | 1.7 | 6.1 | 0.00 | 1.28 | 1.28 | 100 | 1005.8 |
| 20260506023209 | 78 | 155 | 1.7 | 6.1 | 0.00 | 1.28 | 1.28 | 100 | 1005.8 |
| 20260506023108 | 78 | 149 | 1.7 | 6.1 | 0.00 | 1.28 | 1.28 | 100 | 1005.7 |
| 20260506023008 | 78 | 172 | 1.7 | 6.1 | 0.00 | 1.28 | 1.28 | 100 | 1005.8 |
| 20260506022909 | 78 | 166 | 1.7 | 6.1 | 0.00 | 1.28 | 1.28 | 100 | 1005.7 |
| 20260506022809 | 78 | 162 | 0.9 | 4.3 | 0.00 | 1.28 | 1.28 | 100 | 1005.7 |
| 20260506022709 | 78 | 162 | 1.7 | 4.3 | 0.00 | 1.28 | 1.28 | 100 | 1005.7 |
| 20260506022609 | 78 | 176 | 1.7 | 4.3 | 0.00 | 1.28 | 1.28 | 100 | 1005.7 |
| 20260506022508 | 78 | 151 | 1.7 | 3.5 | 0.00 | 1.28 | 1.28 | 100 | 1005.7 |
| 20260506022409 | 78 | 180 | 1.7 | 3.5 | 0.00 | 1.28 | 1.28 | 100 | 1005.6 |
| 20260506022309 | 78 | 158 | 0.9 | 3.5 | 0.00 | 1.28 | 1.28 | 100 | 1005.6 |
| 20260506022208 | 78 | 178 | 0.9 | 3.5 | 0.00 | 1.28 | 1.28 | 100 | 1005.6 |
| 20260506022108 | 79 | 148 | 0.9 | 3.5 | 0.00 | 1.28 | 1.28 | 100 | 1005.5 |
| 20260506022007 | 79 | 164 | 0.9 | 3.5 | 0.00 | 1.28 | 1.28 | 100 | 1005.5 |
| 20260506021908 | 79 | 138 | 0.9 | 3.5 | 0.00 | 1.28 | 1.28 | 100 | 1005.5 |
| 20260506021808 | 79 | 148 | 0.9 | 3.5 | 0.00 | 1.28 | 1.28 | 100 | 1005.4 |
| 20260506021708 | 79 | 142 | 0.9 | 3.5 | 0.00 | 1.28 | 1.28 | 100 | 1005.4 |
| 20260506021608 | 79 | 159 | 0.9 | 3.5 | 0.00 | 1.28 | 1.28 | 100 | 1005.4 |
| 20260506021507 | 79 | 159 | 0.9 | 3.5 | 0.00 | 1.28 | 1.28 | 100 | 1005.4 |
| 20260506021408 | 79 | 162 | 0.9 | 3.5 | 0.00 | 1.28 | 1.28 | 100 | 1005.3 |
| 20260506021309 | 79 | 141 | 0.0 | 3.5 | 0.00 | 1.28 | 1.28 | 100 | 1005.4 |
| 20260506021209 | 79 | 141 | 0.0 | 3.5 | 0.00 | 1.28 | 1.28 | 100 | 1005.3 |
| 20260506021108 | 79 | 131 | 0.0 | 3.5 | 0.00 | 1.28 | 1.28 | 100 | 1005.3 |
| 20260506021007 | 79 | 152 | 0.9 | 3.5 | 0.00 | 1.28 | 1.28 | 100 | 1005.4 |
| 20260506020908 | 79 | 152 | 0.9 | 3.5 | 0.00 | 1.28 | 1.28 | 100 | 1005.4 |
| 20260506020808 | 79 | 161 | 0.9 | 3.5 | 0.00 | 1.28 | 1.28 | 100 | 1005.3 |
| 20260506020708 | 79 | 162 | 0.0 | 3.5 | 0.00 | 1.28 | 1.28 | 100 | 1005.3 |
| 20260506020604 | 79 | 121 | 0.0 | 3.5 | 0.00 | 1.28 | 1.28 | 100 | 1005.3 |
| 20260506020504 | 79 | 148 | 0.0 | 3.5 | 0.00 | 1.28 | 1.28 | 100 | 1005.2 |
| 20260506020403 | 79 | 154 | 0.9 | 3.5 | 0.00 | 1.28 | 1.28 | 100 | 1005.2 |
| 20260506020302 | 79 | 155 | 1.7 | 3.5 | 0.00 | 1.28 | 1.28 | 100 | 1005.2 |
| 20260506020203 | 80 | 171 | 0.9 | 3.5 | 0.00 | 1.28 | 1.28 | 100 | 1005.2 |
| 20260506020004 | 80 | 164 | 0.0 | 4.3 | 0.00 | 1.28 | 1.28 | 100 | 1005.2 |
| 20260506015903 | 80 | 159 | 0.0 | 4.3 | 0.00 | 1.28 | 1.28 | 100 | 1005.1 |
| 20260506015802 | 80 | 159 | 0.0 | 4.3 | 0.00 | 1.28 | 1.28 | 100 | 1005.2 |
| 20260506015704 | 80 | 159 | 0.9 | 4.3 | 0.00 | 1.28 | 1.28 | 100 | 1005.2 |
| 20260506015604 | 80 | 168 | 0.0 | 4.3 | 0.00 | 1.28 | 1.28 | 100 | 1005.2 |
| 20260506015503 | 80 | 142 | 0.9 | 4.3 | 0.00 | 1.28 | 1.28 | 100 | 1005.2 |
| 20260506015402 | 80 | 142 | 0.9 | 4.3 | 0.00 | 1.28 | 1.28 | 100 | 1005.2 |
| 20260506015305 | 79 | 157 | 0.9 | 4.3 | 0.00 | 1.28 | 1.28 | 100 | 1005.2 |
| 20260506015203 | 79 | 166 | 1.7 | 4.3 | 0.00 | 1.28 | 1.28 | 100 | 1005.1 |
| 20260506015102 | 79 | 168 | 1.7 | 4.3 | 0.00 | 1.28 | 1.28 | 100 | 1005.1 |
| 20260506015003 | 79 | 171 | 0.9 | 4.3 | 0.00 | 1.28 | 1.28 | 100 | 1005.1 |
| 20260506014901 | 79 | 149 | 0.9 | 4.3 | 0.00 | 1.28 | 1.28 | 100 | 1005.0 |
| 20260506014803 | 79 | 147 | 1.7 | 4.3 | 0.00 | 1.28 | 1.28 | 100 | 1005.0 |
| 20260506014703 | 79 | 149 | 1.7 | 4.3 | 0.00 | 1.28 | 1.28 | 100 | 1005.1 |
| 20260506014603 | 79 | 152 | 1.7 | 4.3 | 0.00 | 1.28 | 1.28 | 100 | 1005.1 |
| 20260506014503 | 79 | 152 | 1.7 | 4.3 | 0.00 | 1.28 | 1.28 | 100 | 1005.0 |
| 20260506014403 | 79 | 164 | 1.7 | 5.2 | 0.00 | 1.28 | 1.28 | 100 | 1005.1 |
| 20260506014303 | 79 | 172 | 1.7 | 5.2 | 0.00 | 1.28 | 1.28 | 100 | 1005.1 |
| 20260506014203 | 79 | 175 | 1.7 | 5.2 | 0.00 | 1.28 | 1.28 | 100 | 1005.1 |
| 20260506014102 | 79 | 164 | 2.6 | 5.2 | 0.00 | 1.28 | 1.28 | 100 | 1005.0 |
| 20260506014005 | 80 | 157 | 1.7 | 5.2 | 0.00 | 1.28 | 1.28 | 100 | 1005.0 |
| 20260506013902 | 80 | 171 | 0.9 | 7.8 | 0.00 | 1.28 | 1.28 | 100 | 1005.0 |
| 20260506013803 | 80 | 158 | 1.7 | 7.8 | 0.00 | 1.28 | 1.28 | 100 | 1005.0 |
| 20260506013702 | 80 | 142 | 1.7 | 7.8 | 0.00 | 1.28 | 1.28 | 100 | 1005.0 |
| 20260506013602 | 80 | 158 | 2.6 | 8.7 | 0.00 | 1.28 | 1.28 | 100 | 1004.9 |
| 20260506013502 | 80 | 158 | 2.6 | 8.7 | 0.00 | 1.28 | 1.28 | 100 | 1004.9 |
| 20260506013404 | 80 | 162 | 0.9 | 8.7 | 0.00 | 1.28 | 1.28 | 100 | 1004.8 |
| 20260506013302 | 80 | 162 | 0.9 | 8.7 | 0.00 | 1.28 | 1.28 | 100 | 1004.9 |
| 20260506013203 | 80 | 162 | 0.9 | 8.7 | 0.00 | 1.28 | 1.28 | 100 | 1004.9 |
| 20260506013103 | 80 | 164 | 3.5 | 8.7 | 0.00 | 1.28 | 1.28 | 100 | 1004.8 |
| 20260506013003 | 80 | 166 | 5.2 | 8.7 | 0.00 | 1.28 | 1.28 | 100 | 1004.8 |
| 20260506012902 | 80 | 171 | 4.3 | 8.7 | 0.00 | 1.28 | 1.28 | 100 | 1004.8 |
| 20260506012802 | 80 | 173 | 4.3 | 8.7 | 0.00 | 1.28 | 1.28 | 100 | 1004.8 |
| 20260506012701 | 80 | 130 | 4.3 | 8.7 | 0.00 | 1.28 | 1.28 | 100 | 1004.8 |
| 20260506012602 | 80 | 123 | 1.7 | 8.7 | 0.00 | 1.28 | 1.28 | 100 | 1004.8 |
| 20260506012504 | 80 | 190 | 1.7 | 8.7 | 0.00 | 1.28 | 1.28 | 100 | 1004.8 |
| 20260506012402 | 80 | 140 | 1.7 | 8.7 | 0.00 | 1.28 | 1.28 | 100 | 1004.7 |
| 20260506012301 | 80 | 121 | 1.7 | 8.7 | 0.00 | 1.28 | 1.28 | 100 | 1004.8 |
| 20260506012202 | 80 | 157 | 1.7 | 8.7 | 0.00 | 1.28 | 1.28 | 100 | 1004.7 |
| 20260506012103 | 80 | 148 | 3.5 | 8.7 | 0.00 | 1.28 | 1.28 | 100 | 1004.8 |
| 20260506012002 | 79 | 149 | 1.7 | 8.7 | 0.00 | 1.28 | 1.28 | 100 | 1004.7 |
| 20260506011903 | 79 | 165 | 2.6 | 8.7 | 0.00 | 1.28 | 1.28 | 100 | 1004.8 |
| 20260506011803 | 80 | 104 | 2.6 | 8.7 | 0.00 | 1.28 | 1.28 | 100 | 1004.7 |
| 20260506011702 | 80 | 176 | 1.7 | 7.8 | 0.00 | 1.28 | 1.28 | 100 | 1004.8 |
| 20260506011603 | 80 | 166 | 2.6 | 7.8 | 0.00 | 1.28 | 1.28 | 100 | 1004.8 |
| 20260506011503 | 80 | 134 | 2.6 | 7.8 | 0.00 | 1.28 | 1.28 | 100 | 1004.8 |
| 20260506011404 | 80 | 155 | 2.6 | 7.8 | 0.00 | 1.28 | 1.28 | 100 | 1004.8 |
| 20260506011301 | 80 | 169 | 1.7 | 7.8 | 0.00 | 1.28 | 1.28 | 100 | 1004.8 |
| 20260506011203 | 80 | 165 | 1.7 | 6.1 | 0.00 | 1.28 | 1.28 | 100 | 1004.7 |
| 20260506011101 | 80 | 144 | 2.6 | 6.1 | 0.00 | 1.28 | 1.28 | 100 | 1004.7 |
| 20260506011005 | 81 | 162 | 3.5 | 6.1 | 0.00 | 1.28 | 1.28 | 100 | 1004.7 |
| 20260506010902 | 81 | 159 | 3.5 | 6.1 | 0.00 | 1.28 | 1.28 | 100 | 1004.7 |
| 20260506010803 | 81 | 128 | 2.6 | 6.1 | 0.00 | 1.28 | 1.28 | 100 | 1004.7 |
| 20260506010704 | 81 | 182 | 1.7 | 5.2 | 0.00 | 1.28 | 1.28 | 100 | 1004.7 |
| 20260506010603 | 81 | 159 | 0.9 | 5.2 | 0.00 | 1.28 | 1.28 | 100 | 1004.7 |
| 20260506010503 | 81 | 158 | 1.7 | 5.2 | 0.00 | 1.28 | 1.28 | 100 | 1004.7 |
| 20260506010404 | 81 | 152 | 2.6 | 6.1 | 0.00 | 1.28 | 1.28 | 100 | 1004.6 |
| 20260506010302 | 81 | 158 | 2.6 | 6.1 | 0.00 | 1.28 | 1.28 | 100 | 1004.7 |
| 20260506010202 | 80 | 140 | 1.7 | 6.1 | 0.00 | 1.28 | 1.28 | 100 | 1004.7 |
| 20260506010103 | 80 | 148 | 1.7 | 7.8 | 0.00 | 1.28 | 1.28 | 100 | 1004.7 |
| 20260506010004 | 80 | 157 | 0.9 | 7.8 | 0.00 | 1.28 | 1.28 | 100 | 1004.7 |
| 20260506005904 | 80 | 162 | 0.9 | 7.8 | 0.00 | 1.28 | 1.28 | 100 | 1004.6 |
| 20260506005803 | 80 | 161 | 1.7 | 7.8 | 0.00 | 1.28 | 1.28 | 100 | 1004.7 |
| 20260506005702 | 80 | 162 | 2.6 | 7.8 | 0.00 | 1.28 | 1.28 | 100 | 1004.7 |
| 20260506005602 | 80 | 134 | 3.5 | 7.8 | 0.00 | 1.28 | 1.28 | 100 | 1004.6 |
| 20260506005502 | 80 | 161 | 1.7 | 7.8 | 0.00 | 1.28 | 1.28 | 100 | 1004.8 |
| 20260506005402 | 80 | 137 | 1.7 | 7.8 | 0.00 | 1.28 | 1.28 | 100 | 1004.7 |
| 20260506005305 | 80 | 179 | 2.6 | 7.8 | 0.00 | 1.28 | 1.28 | 100 | 1004.7 |
| 20260506005203 | 80 | 135 | 3.5 | 7.8 | 0.00 | 1.28 | 1.28 | 100 | 1004.7 |
| 20260506005103 | 80 | 159 | 1.7 | 4.3 | 0.00 | 1.28 | 1.28 | 100 | 1004.7 |
| 20260506005003 | 80 | 154 | 0.9 | 4.3 | 0.00 | 1.28 | 1.28 | 100 | 1004.7 |
| 20260506004903 | 80 | 165 | 1.7 | 5.2 | 0.00 | 1.28 | 1.28 | 100 | 1004.7 |
| 20260506004805 | 80 | 141 | 1.7 | 5.2 | 0.00 | 1.28 | 1.28 | 100 | 1004.7 |
| 20260506004702 | 80 | 157 | 0.9 | 5.2 | 0.00 | 1.28 | 1.28 | 100 | 1004.6 |
| 20260506004604 | 80 | 155 | 0.9 | 5.2 | 0.00 | 1.28 | 1.28 | 100 | 1004.6 |
| 20260506004504 | 81 | 157 | 1.7 | 5.2 | 0.00 | 1.28 | 1.28 | 100 | 1004.6 |
| 20260506004403 | 81 | 165 | 0.9 | 5.2 | 0.00 | 1.28 | 1.28 | 100 | 1004.6 |
| 20260506004302 | 81 | 135 | 0.9 | 5.2 | 0.00 | 1.28 | 1.28 | 100 | 1004.5 |
| 20260506004203 | 81 | 169 | 1.7 | 5.2 | 0.00 | 1.28 | 1.28 | 100 | 1004.5 |
| 20260506004102 | 81 | 164 | 2.6 | 5.2 | 0.00 | 1.28 | 1.28 | 100 | 1004.6 |
| 20260506004004 | 81 | 141 | 2.6 | 5.2 | 0.00 | 1.28 | 1.28 | 100 | 1004.5 |
| 20260506003903 | 0 | 0.0 | 0.0 | 0.00 | 1.28 | 1.28 | 1004.5 | ||
| 20260506003803 | 0 | 0.0 | 0.0 | 0.00 | 1.28 | 1.28 | 1004.5 | ||
| 20260506003631 | 0 | 0.0 | 0.0 | 0.00 | 1.28 | 1.28 | 1004.5 | ||
| 20260506003532 | 0 | 0.0 | 0.0 | 0.00 | 1.28 | 1.28 | 1004.5 | ||
| 20260506003432 | 80 | 176 | 1.7 | 2.6 | 0.00 | 1.28 | 1.28 | 100 | 1004.5 |
| 20260506003332 | 80 | 176 | 1.7 | 2.6 | 0.00 | 1.28 | 1.28 | 100 | 1004.5 |
| 20260506003232 | 80 | 176 | 1.7 | 3.5 | 0.00 | 1.28 | 1.28 | 100 | 1004.5 |
| 20260506003132 | 80 | 176 | 1.7 | 4.3 | 0.00 | 1.28 | 1.28 | 100 | 1004.4 |
| 20260506003032 | 80 | 176 | 1.7 | 7.8 | 0.00 | 1.28 | 1.28 | 100 | 1004.4 |
| 20260506002931 | 80 | 176 | 1.7 | 7.8 | 0.00 | 1.28 | 1.28 | 100 | 1004.4 |
| 20260506002803 | 80 | 176 | 1.7 | 7.8 | 0.00 | 1.28 | 1.28 | 100 | 1004.4 |
| 20260506002703 | 80 | 176 | 1.7 | 7.8 | 0.00 | 1.28 | 1.28 | 100 | 1004.4 |
| 20260506002603 | 80 | 176 | 1.7 | 7.8 | 0.00 | 1.28 | 1.28 | 100 | 1004.4 |
| 20260506002503 | 80 | 178 | 1.7 | 7.8 | 0.00 | 1.28 | 1.28 | 100 | 1004.3 |
| 20260506002402 | 80 | 203 | 1.7 | 7.8 | 0.00 | 1.28 | 1.28 | 100 | 1004.4 |
| 20260506002302 | 80 | 178 | 2.6 | 7.8 | 0.00 | 1.28 | 1.28 | 100 | 1004.4 |
| 20260506002201 | 80 | 145 | 2.6 | 7.8 | 0.00 | 1.28 | 1.28 | 100 | 1004.3 |
| 20260506002102 | 80 | 182 | 3.5 | 7.8 | 0.00 | 1.28 | 1.28 | 100 | 1004.3 |
| 20260506002004 | 81 | 127 | 3.5 | 5.2 | 0.00 | 1.28 | 1.28 | 100 | 1004.4 |
| 20260506001902 | 81 | 164 | 2.6 | 4.3 | 0.00 | 1.28 | 1.28 | 100 | 1004.3 |
| 20260506001802 | 81 | 175 | 2.6 | 4.3 | 0.00 | 1.28 | 1.28 | 100 | 1004.3 |
| 20260506001702 | 81 | 172 | 1.7 | 6.1 | 0.00 | 1.28 | 1.28 | 100 | 1004.3 |
| 20260506001602 | 81 | 134 | 0.9 | 6.1 | 0.00 | 1.28 | 1.28 | 100 | 1004.4 |
| 20260506001503 | 81 | 134 | 0.9 | 6.1 | 0.00 | 1.28 | 1.28 | 100 | 1004.3 |
| 20260506001403 | 81 | 155 | 0.9 | 6.1 | 0.00 | 1.28 | 1.28 | 100 | 1004.4 |
| 20260506001302 | 81 | 155 | 1.7 | 6.1 | 0.00 | 1.28 | 1.28 | 100 | 1004.4 |
| 20260506001201 | 81 | 179 | 1.7 | 6.1 | 0.00 | 1.28 | 1.28 | 100 | 1004.4 |
| 20260506001103 | 81 | 135 | 2.6 | 7.8 | 0.00 | 1.28 | 1.28 | 100 | 1004.4 |
| 20260506001003 | 81 | 127 | 2.6 | 7.8 | 0.00 | 1.28 | 1.28 | 100 | 1004.4 |
| 20260506000903 | 81 | 164 | 2.6 | 7.8 | 0.00 | 1.28 | 1.28 | 100 | 1004.4 |
| 20260506000803 | 81 | 176 | 2.6 | 7.8 | 0.00 | 1.28 | 1.28 | 100 | 1004.4 |
| 20260506000702 | 81 | 189 | 1.7 | 7.8 | 0.00 | 1.28 | 1.28 | 100 | 1004.3 |
| 20260506000601 | 81 | 175 | 1.7 | 7.8 | 0.00 | 1.28 | 1.28 | 100 | 1004.3 |
| 20260506000502 | 80 | 164 | 2.6 | 7.8 | 0.00 | 1.28 | 1.28 | 100 | 1004.4 |
| 20260506000402 | 80 | 164 | 2.6 | 7.8 | 0.00 | 1.28 | 1.28 | 100 | 1004.4 |
| 20260506000302 | 80 | 164 | 2.6 | 7.8 | 0.00 | 1.28 | 1.28 | 100 | 1004.3 |
| 20260506000204 | 80 | 164 | 2.6 | 7.8 | 0.00 | 1.28 | 1.28 | 100 | 1004.3 |
| 20260506000002 | 80 | 186 | 2.6 | 8.7 | 0.00 | 1.28 | 1.28 | 100 | 1004.3 |
| 20260505235859 | 80 | 151 | 2.6 | 8.7 | 0.00 | 1.28 | 1.28 | 100 | 1004.3 |
| 20260505235759 | 80 | 151 | 2.6 | 8.7 | 0.00 | 1.28 | 1.28 | 100 | 1004.3 |
| 20260505235658 | 80 | 179 | 2.6 | 8.7 | 0.00 | 1.28 | 1.28 | 100 | 1004.4 |
| 20260505235550 | 80 | 79 | 2.6 | 8.7 | 0.00 | 1.28 | 1.28 | 100 | 1004.3 |
| 20260505235432 | 80 | 159 | 2.6 | 8.7 | 0.00 | 1.28 | 1.28 | 100 | 1004.3 |
| 20260505235331 | 81 | 133 | 3.5 | 8.7 | 0.00 | 1.28 | 1.28 | 100 | 1004.4 |
| 20260505235232 | 81 | 133 | 3.5 | 8.7 | 0.00 | 1.28 | 1.28 | 100 | 1004.3 |
| 20260505235128 | 81 | 169 | 3.5 | 8.7 | 0.00 | 1.28 | 1.28 | 100 | 1004.3 |
| 20260505235025 | 81 | 168 | 2.6 | 8.7 | 0.00 | 1.28 | 1.28 | 100 | 1004.3 |
| 20260505234911 | 81 | 158 | 2.6 | 8.7 | 0.00 | 1.28 | 1.28 | 100 | 1004.3 |
| 20260505234809 | 81 | 138 | 2.6 | 8.7 | 0.00 | 1.28 | 1.28 | 100 | 1004.2 |
| 20260505234708 | 81 | 151 | 2.6 | 8.7 | 0.00 | 1.28 | 1.28 | 100 | 1004.2 |
| 20260505234603 | 81 | 200 | 3.5 | 8.7 | 0.00 | 1.28 | 1.28 | 100 | 1004.2 |
| 20260505234504 | 81 | 168 | 3.5 | 8.7 | 0.00 | 1.28 | 1.28 | 100 | 1004.2 |
| 20260505234401 | 81 | 234 | 3.5 | 8.7 | 0.00 | 1.28 | 1.28 | 100 | 1004.2 |
| 20260505234302 | 81 | 140 | 3.5 | 8.7 | 0.00 | 1.28 | 1.28 | 100 | 1004.3 |
| 20260505234202 | 81 | 134 | 2.6 | 8.7 | 0.00 | 1.28 | 1.28 | 100 | 1004.3 |
| 20260505234102 | 81 | 165 | 3.5 | 8.7 | 0.00 | 1.28 | 1.28 | 100 | 1004.3 |
| 20260505234003 | 81 | 180 | 3.5 | 8.7 | 0.00 | 1.28 | 1.28 | 100 | 1004.3 |
| 20260505233902 | 81 | 159 | 2.6 | 8.7 | 0.00 | 1.28 | 1.28 | 100 | 1004.3 |
| 20260505233802 | 81 | 182 | 2.6 | 8.7 | 0.00 | 1.28 | 1.28 | 100 | 1004.2 |
| 20260505233702 | 81 | 128 | 2.6 | 8.7 | 0.00 | 1.28 | 1.28 | 100 | 1004.3 |
| 20260505233602 | 81 | 193 | 3.5 | 8.7 | 0.00 | 1.28 | 1.28 | 100 | 1004.3 |
| 20260505233502 | 81 | 183 | 4.3 | 8.7 | 0.00 | 1.28 | 1.28 | 100 | 1004.3 |
| 20260505233402 | 81 | 172 | 4.3 | 8.7 | 0.00 | 1.28 | 1.28 | 100 | 1004.3 |
| 20260505233304 | 81 | 141 | 4.3 | 8.7 | 0.00 | 1.28 | 1.28 | 100 | 1004.3 |
| 20260505233202 | 81 | 165 | 4.3 | 8.7 | 0.00 | 1.28 | 1.28 | 100 | 1004.4 |
| 20260505233102 | 81 | 144 | 2.6 | 8.7 | 0.00 | 1.28 | 1.28 | 100 | 1004.4 |
| 20260505233004 | 81 | 148 | 3.5 | 8.7 | 0.00 | 1.28 | 1.28 | 100 | 1004.4 |
| 20260505232902 | 81 | 168 | 4.3 | 8.7 | 0.00 | 1.28 | 1.28 | 100 | 1004.4 |
| 20260505232802 | 81 | 92 | 4.3 | 8.7 | 0.00 | 1.28 | 1.28 | 100 | 1004.4 |
| 20260505232703 | 81 | 134 | 4.3 | 7.8 | 0.00 | 1.28 | 1.28 | 100 | 1004.4 |
| 20260505232602 | 81 | 128 | 3.5 | 7.8 | 0.00 | 1.28 | 1.28 | 100 | 1004.4 |
| 20260505232501 | 81 | 238 | 3.5 | 8.7 | 0.00 | 1.28 | 1.28 | 100 | 1004.3 |
| 20260505232402 | 81 | 158 | 2.6 | 8.7 | 0.00 | 1.28 | 1.28 | 100 | 1004.4 |
| 20260505232305 | 81 | 264 | 2.6 | 8.7 | 0.00 | 1.28 | 1.28 | 100 | 1004.4 |
| 20260505232202 | 81 | 162 | 2.6 | 8.7 | 0.00 | 1.28 | 1.28 | 100 | 1004.3 |
| 20260505232102 | 82 | 173 | 1.7 | 8.7 | 0.00 | 1.28 | 1.28 | 100 | 1004.4 |
| 20260505232003 | 82 | 192 | 1.7 | 8.7 | 0.00 | 1.28 | 1.28 | 100 | 1004.5 |
| 20260505231903 | 82 | 169 | 2.6 | 8.7 | 0.00 | 1.28 | 1.28 | 100 | 1004.5 |
| 20260505231802 | 82 | 169 | 3.5 | 8.7 | 0.00 | 1.28 | 1.28 | 100 | 1004.5 |
| 20260505231702 | 82 | 145 | 4.3 | 8.7 | 0.00 | 1.28 | 1.28 | 100 | 1004.4 |
| 20260505231603 | 82 | 190 | 3.5 | 8.7 | 0.00 | 1.28 | 1.28 | 100 | 1004.4 |
| 20260505231502 | 82 | 158 | 2.6 | 7.8 | 0.00 | 1.28 | 1.28 | 100 | 1004.4 |
| 20260505231403 | 82 | 164 | 1.7 | 6.1 | 0.00 | 1.28 | 1.28 | 100 | 1004.5 |
| 20260505231303 | 82 | 161 | 2.6 | 6.1 | 0.00 | 1.28 | 1.28 | 100 | 1004.5 |
| 20260505231201 | 82 | 159 | 2.6 | 6.1 | 0.00 | 1.28 | 1.28 | 100 | 1004.4 |
| 20260505231102 | 82 | 149 | 2.6 | 6.1 | 0.00 | 1.28 | 1.28 | 100 | 1004.4 |
| 20260505231003 | 82 | 179 | 2.6 | 6.1 | 0.00 | 1.28 | 1.28 | 100 | 1004.4 |
| 20260505230903 | 82 | 166 | 3.5 | 6.1 | 0.00 | 1.28 | 1.28 | 100 | 1004.4 |
| 20260505230801 | 82 | 157 | 3.5 | 6.1 | 0.00 | 1.28 | 1.28 | 100 | 1004.4 |
| 20260505230702 | 82 | 134 | 2.6 | 7.8 | 0.00 | 1.28 | 1.28 | 100 | 1004.4 |
| 20260505230602 | 82 | 152 | 1.7 | 14.8 | 0.00 | 1.28 | 1.28 | 100 | 1004.4 |
| 20260505230502 | 82 | 151 | 1.7 | 14.8 | 0.00 | 1.28 | 1.28 | 100 | 1004.4 |
| 20260505230402 | 82 | 141 | 3.5 | 14.8 | 0.00 | 1.28 | 1.28 | 100 | 1004.4 |
| 20260505230303 | 82 | 133 | 3.5 | 14.8 | 0.00 | 1.28 | 1.28 | 100 | 1004.4 |
| 20260505230202 | 82 | 175 | 2.6 | 14.8 | 0.00 | 1.28 | 1.28 | 100 | 1004.3 |
| 20260505230003 | 82 | 154 | 3.5 | 14.8 | 0.00 | 1.28 | 1.28 | 100 | 1004.3 |
| 20260505225902 | 82 | 210 | 3.5 | 14.8 | 0.00 | 1.28 | 1.28 | 100 | 1004.3 |
| 20260505225802 | 82 | 128 | 6.1 | 14.8 | 0.00 | 1.28 | 1.28 | 100 | 1004.2 |
| 20260505225702 | 82 | 154 | 6.1 | 14.8 | 0.00 | 1.28 | 1.28 | 100 | 1004.2 |
| 20260505225604 | 82 | 180 | 5.2 | 10.4 | 0.00 | 1.28 | 1.28 | 100 | 1004.1 |
| 20260505225502 | 82 | 134 | 4.3 | 10.4 | 0.00 | 1.28 | 1.28 | 100 | 1004.1 |
| 20260505225402 | 82 | 123 | 2.6 | 7.8 | 0.00 | 1.28 | 1.28 | 100 | 1004.1 |
| 20260505225305 | 83 | 142 | 3.5 | 7.8 | 0.00 | 1.28 | 1.28 | 100 | 1004.1 |
| 20260505225203 | 83 | 145 | 3.5 | 7.8 | 0.00 | 1.28 | 1.28 | 100 | 1004.1 |
| 20260505225104 | 83 | 121 | 4.3 | 7.8 | 0.00 | 1.28 | 1.28 | 100 | 1004.1 |
| 20260505225004 | 83 | 158 | 4.3 | 7.8 | 0.00 | 1.28 | 1.28 | 100 | 1004.2 |
| 20260505224901 | 83 | 165 | 4.3 | 7.8 | 0.00 | 1.28 | 1.28 | 100 | 1004.2 |
| 20260505224802 | 83 | 158 | 3.5 | 7.8 | 0.00 | 1.28 | 1.28 | 100 | 1004.3 |
| 20260505224703 | 83 | 144 | 3.5 | 7.8 | 0.00 | 1.28 | 1.28 | 100 | 1004.2 |
| 20260505224602 | 83 | 100 | 2.6 | 7.8 | 0.00 | 1.28 | 1.28 | 100 | 1004.2 |
| 20260505224504 | 83 | 162 | 2.6 | 7.8 | 0.00 | 1.28 | 1.28 | 100 | 1004.2 |
| 20260505224403 | 83 | 152 | 3.5 | 6.1 | 0.00 | 1.28 | 1.28 | 100 | 1004.2 |
| 20260505224303 | 83 | 178 | 4.3 | 6.1 | 0.00 | 1.28 | 1.28 | 100 | 1004.3 |
| 20260505224202 | 83 | 165 | 2.6 | 10.4 | 0.00 | 1.28 | 1.28 | 100 | 1004.3 |
| 20260505224103 | 83 | 200 | 2.6 | 10.4 | 0.00 | 1.28 | 1.28 | 100 | 1004.3 |
| 20260505224004 | 83 | 125 | 2.6 | 10.4 | 0.00 | 1.28 | 1.28 | 100 | 1004.3 |
| 20260505223903 | 82 | 135 | 3.5 | 10.4 | 0.00 | 1.28 | 1.28 | 100 | 1004.3 |
| 20260505223802 | 82 | 135 | 3.5 | 10.4 | 0.00 | 1.28 | 1.28 | 100 | 1004.3 |
| 20260505223701 | 82 | 135 | 3.5 | 10.4 | 0.00 | 1.28 | 1.28 | 100 | 1004.4 |
| 20260505223602 | 82 | 135 | 3.5 | 10.4 | 0.00 | 1.28 | 1.28 | 100 | 1004.3 |
| 20260505223502 | 82 | 148 | 3.5 | 10.4 | 0.00 | 1.28 | 1.28 | 100 | 1004.3 |
| 20260505223403 | 82 | 176 | 4.3 | 10.4 | 0.00 | 1.28 | 1.28 | 100 | 1004.3 |
| 20260505223301 | 82 | 133 | 4.3 | 10.4 | 0.00 | 1.28 | 1.28 | 100 | 1004.4 |
| 20260505223202 | 82 | 66 | 3.5 | 8.7 | 0.00 | 1.28 | 1.28 | 100 | 1004.3 |
| 20260505223100 | 82 | 178 | 3.5 | 8.7 | 0.00 | 1.28 | 1.28 | 100 | 1004.3 |
| 20260505222959 | 82 | 172 | 4.3 | 8.7 | 0.00 | 1.28 | 1.28 | 100 | 1004.4 |
| 20260505222900 | 82 | 176 | 4.3 | 8.7 | 0.00 | 1.28 | 1.28 | 100 | 1004.4 |
| 20260505222759 | 83 | 169 | 6.1 | 8.7 | 0.00 | 1.28 | 1.28 | 100 | 1004.4 |
| 20260505222658 | 83 | 175 | 5.2 | 8.7 | 0.00 | 1.28 | 1.28 | 100 | 1004.3 |
| 20260505222558 | 83 | 166 | 3.5 | 8.7 | 0.00 | 1.28 | 1.28 | 100 | 1004.4 |
| 20260505222459 | 83 | 180 | 4.3 | 8.7 | 0.00 | 1.28 | 1.28 | 100 | 1004.4 |
| 20260505222359 | 83 | 158 | 4.3 | 8.7 | 0.00 | 1.28 | 1.28 | 100 | 1004.3 |
| 20260505222258 | 83 | 164 | 4.3 | 7.8 | 0.00 | 1.28 | 1.28 | 100 | 1004.3 |
| 20260505222158 | 83 | 164 | 4.3 | 7.8 | 0.00 | 1.28 | 1.28 | 100 | 1004.4 |
| 20260505222059 | 83 | 171 | 3.5 | 7.8 | 0.00 | 1.28 | 1.28 | 100 | 1004.3 |
| 20260505221959 | 83 | 154 | 2.6 | 8.7 | 0.00 | 1.28 | 1.28 | 100 | 1004.4 |
| 20260505221859 | 83 | 154 | 3.5 | 8.7 | 0.00 | 1.28 | 1.28 | 100 | 1004.3 |
| 20260505221800 | 83 | 162 | 3.5 | 8.7 | 0.00 | 1.28 | 1.28 | 100 | 1004.3 |
| 20260505221700 | 83 | 189 | 3.5 | 8.7 | 0.00 | 1.28 | 1.28 | 100 | 1004.3 |
| 20260505221559 | 83 | 224 | 3.5 | 8.7 | 0.00 | 1.28 | 1.28 | 100 | 1004.4 |
| 20260505221459 | 83 | 159 | 2.6 | 10.4 | 0.00 | 1.28 | 1.28 | 100 | 1004.4 |
| 20260505221359 | 83 | 178 | 3.5 | 10.4 | 0.00 | 1.28 | 1.28 | 100 | 1004.3 |
| 20260505221259 | 83 | 149 | 3.5 | 10.4 | 0.00 | 1.28 | 1.28 | 100 | 1004.3 |
| 20260505221159 | 83 | 109 | 3.5 | 10.4 | 0.00 | 1.28 | 1.28 | 100 | 1004.3 |
| 20260505221059 | 83 | 154 | 2.6 | 10.4 | 0.00 | 1.28 | 1.28 | 100 | 1004.4 |
| 20260505220958 | 83 | 155 | 2.6 | 10.4 | 0.00 | 1.28 | 1.28 | 100 | 1004.4 |
| 20260505220859 | 83 | 161 | 2.6 | 10.4 | 0.00 | 1.28 | 1.28 | 100 | 1004.4 |
| 20260505220759 | 83 | 159 | 1.7 | 10.4 | 0.00 | 1.28 | 1.28 | 100 | 1004.4 |
| 20260505220658 | 83 | 173 | 3.5 | 10.4 | 0.00 | 1.28 | 1.28 | 100 | 1004.4 |
| 20260505220558 | 83 | 169 | 4.3 | 10.4 | 0.00 | 1.28 | 1.28 | 100 | 1004.4 |
| 20260505220459 | 83 | 175 | 3.5 | 7.8 | 0.00 | 1.28 | 1.28 | 100 | 1004.5 |
| 20260505220359 | 83 | 176 | 1.7 | 7.8 | 0.00 | 1.28 | 1.28 | 100 | 1004.5 |
| 20260505220258 | 83 | 214 | 3.5 | 7.8 | 0.00 | 1.28 | 1.28 | 100 | 1004.5 |
| 20260505220159 | 83 | 190 | 2.6 | 7.8 | 0.00 | 1.28 | 1.28 | 100 | 1004.5 |
| 20260505220059 | 83 | 190 | 2.6 | 7.8 | 0.00 | 1.28 | 1.28 | 100 | 1004.5 |
| 20260505215958 | 83 | 192 | 4.3 | 7.8 | 0.00 | 1.28 | 1.28 | 100 | 1004.5 |
| 20260505215859 | 83 | 159 | 4.3 | 7.8 | 0.00 | 1.28 | 1.28 | 100 | 1004.5 |
| 20260505215800 | 83 | 164 | 3.5 | 7.8 | 0.00 | 1.28 | 1.28 | 100 | 1004.6 |
| 20260505215657 | 83 | 207 | 2.6 | 7.8 | 0.00 | 1.28 | 1.28 | 100 | 1004.6 |
| 20260505215558 | 83 | 148 | 2.6 | 7.8 | 0.00 | 1.28 | 1.28 | 100 | 1004.7 |
| 20260505215459 | 83 | 144 | 3.5 | 7.8 | 0.00 | 1.28 | 1.28 | 100 | 1004.7 |
| 20260505215358 | 83 | 188 | 3.5 | 7.8 | 0.00 | 1.28 | 1.28 | 100 | 1004.7 |
| 20260505215300 | 83 | 157 | 1.7 | 7.8 | 0.00 | 1.28 | 1.28 | 100 | 1004.6 |
| 20260505215157 | 83 | 138 | 1.7 | 7.8 | 0.00 | 1.28 | 1.28 | 100 | 1004.6 |
| 20260505215059 | 83 | 117 | 3.5 | 7.8 | 0.00 | 1.28 | 1.28 | 100 | 1004.6 |
| 20260505214957 | 83 | 161 | 3.5 | 7.8 | 0.00 | 1.28 | 1.28 | 100 | 1004.7 |
| 20260505214859 | 83 | 180 | 2.6 | 7.8 | 0.00 | 1.28 | 1.28 | 100 | 1004.7 |
| 20260505214757 | 83 | 151 | 2.6 | 7.8 | 0.00 | 1.28 | 1.28 | 100 | 1004.6 |
| 20260505214658 | 83 | 147 | 4.3 | 8.7 | 0.00 | 1.28 | 1.28 | 100 | 1004.7 |
| 20260505214559 | 83 | 147 | 4.3 | 8.7 | 0.00 | 1.28 | 1.28 | 100 | 1004.6 |
| 20260505214458 | 83 | 169 | 4.3 | 8.7 | 0.00 | 1.28 | 1.28 | 100 | 1004.6 |
| 20260505214358 | 83 | 169 | 3.5 | 8.7 | 0.00 | 1.28 | 1.28 | 100 | 1004.6 |
| 20260505214257 | 83 | 158 | 2.6 | 8.7 | 0.00 | 1.28 | 1.28 | 100 | 1004.7 |
| 20260505214159 | 83 | 172 | 1.7 | 8.7 | 0.00 | 1.28 | 1.28 | 100 | 1004.7 |
| 20260505214058 | 83 | 135 | 2.6 | 8.7 | 0.00 | 1.28 | 1.28 | 100 | 1004.7 |
| 20260505213957 | 83 | 182 | 3.5 | 8.7 | 0.00 | 1.28 | 1.28 | 100 | 1004.7 |
| 20260505213858 | 83 | 157 | 3.5 | 9.6 | 0.00 | 1.28 | 1.28 | 100 | 1004.7 |
| 20260505213759 | 83 | 172 | 3.5 | 9.6 | 0.00 | 1.28 | 1.28 | 100 | 1004.8 |
| 20260505213658 | 83 | 162 | 1.7 | 9.6 | 0.00 | 1.28 | 1.28 | 100 | 1004.8 |
| 20260505213558 | 83 | 176 | 2.6 | 9.6 | 0.00 | 1.28 | 1.28 | 100 | 1004.8 |
| 20260505213458 | 83 | 176 | 2.6 | 9.6 | 0.00 | 1.28 | 1.28 | 100 | 1004.7 |
| 20260505213358 | 83 | 176 | 2.6 | 9.6 | 0.00 | 1.28 | 1.28 | 100 | 1004.7 |
| 20260505213258 | 83 | 176 | 2.6 | 9.6 | 0.00 | 1.28 | 1.28 | 100 | 1004.8 |
| 20260505213158 | 83 | 168 | 3.5 | 9.6 | 0.00 | 1.28 | 1.28 | 100 | 1004.7 |
| 20260505213057 | 83 | 180 | 3.5 | 9.6 | 0.00 | 1.28 | 1.28 | 100 | 1004.8 |
| 20260505212957 | 83 | 141 | 3.5 | 9.6 | 0.00 | 1.28 | 1.28 | 100 | 1004.7 |
| 20260505212858 | 84 | 157 | 2.6 | 9.6 | 0.00 | 1.28 | 1.28 | 100 | 1004.8 |
| 20260505212757 | 84 | 179 | 2.6 | 9.6 | 0.00 | 1.28 | 1.28 | 100 | 1004.8 |
| 20260505212659 | 84 | 165 | 2.6 | 9.6 | 0.00 | 1.28 | 1.28 | 100 | 1004.8 |
| 20260505212558 | 84 | 155 | 0.9 | 9.6 | 0.00 | 1.28 | 1.28 | 100 | 1004.9 |
| 20260505212458 | 84 | 185 | 3.5 | 9.6 | 0.00 | 1.28 | 1.28 | 100 | 1004.9 |
| 20260505212357 | 84 | 178 | 4.3 | 9.6 | 0.00 | 1.28 | 1.28 | 100 | 1004.8 |
| 20260505212256 | 84 | 164 | 3.5 | 8.7 | 0.00 | 1.28 | 1.28 | 100 | 1004.8 |
| 20260505212158 | 84 | 180 | 3.5 | 8.7 | 0.00 | 1.28 | 1.28 | 100 | 1004.8 |
| 20260505212056 | 84 | 176 | 2.6 | 4.3 | 0.00 | 1.28 | 1.28 | 100 | 1004.7 |
| 20260505211958 | 84 | 157 | 3.5 | 4.3 | 0.00 | 1.28 | 1.28 | 100 | 1004.8 |
| 20260505211856 | 84 | 149 | 2.6 | 4.3 | 0.00 | 1.28 | 1.28 | 100 | 1004.8 |
| 20260505211758 | 84 | 134 | 1.7 | 4.3 | 0.00 | 1.28 | 1.28 | 100 | 1004.8 |
| 20260505211658 | 83 | 175 | 0.9 | 6.1 | 0.00 | 1.28 | 1.28 | 100 | 1004.8 |
| 20260505211557 | 83 | 162 | 0.9 | 6.1 | 0.00 | 1.28 | 1.28 | 100 | 1004.9 |
| 20260505211457 | 83 | 162 | 1.7 | 7.8 | 0.00 | 1.28 | 1.28 | 100 | 1004.9 |
| 20260505211357 | 83 | 165 | 1.7 | 7.8 | 0.00 | 1.28 | 1.28 | 100 | 1004.9 |
| 20260505211257 | 83 | 157 | 1.7 | 7.8 | 0.00 | 1.28 | 1.28 | 100 | 1004.9 |
| 20260505211157 | 83 | 185 | 3.5 | 7.8 | 0.00 | 1.28 | 1.28 | 100 | 1004.9 |
| 20260505211057 | 83 | 185 | 3.5 | 7.8 | 0.00 | 1.28 | 1.28 | 100 | 1004.9 |
| 20260505210958 | 83 | 185 | 3.5 | 7.8 | 0.00 | 1.28 | 1.28 | 100 | 1004.9 |
| 20260505210858 | 83 | 185 | 3.5 | 7.8 | 0.00 | 1.28 | 1.28 | 100 | 1004.9 |
| 20260505210757 | 83 | 185 | 3.5 | 7.8 | 0.00 | 1.28 | 1.28 | 100 | 1005.0 |
| 20260505210656 | 83 | 158 | 4.3 | 7.8 | 0.00 | 1.28 | 1.28 | 100 | 1005.0 |
| 20260505210557 | 83 | 168 | 3.5 | 7.8 | 0.00 | 1.28 | 1.28 | 100 | 1005.1 |
| 20260505210458 | 83 | 142 | 1.7 | 6.1 | 0.00 | 1.28 | 1.28 | 100 | 1005.0 |
| 20260505210357 | 83 | 135 | 1.7 | 6.1 | 0.00 | 1.28 | 1.28 | 100 | 1005.0 |
| 20260505210256 | 83 | 103 | 1.7 | 6.1 | 0.00 | 1.28 | 1.28 | 100 | 1005.0 |
| 20260505210156 | 83 | 179 | 1.7 | 6.1 | 0.00 | 1.28 | 1.28 | 100 | 1005.1 |
| 20260505210056 | 83 | 154 | 1.7 | 6.1 | 0.00 | 1.28 | 1.28 | 100 | 1005.0 |
| 20260505205958 | 83 | 162 | 2.6 | 6.1 | 0.00 | 1.28 | 1.28 | 100 | 1005.1 |
| 20260505205857 | 83 | 190 | 1.7 | 6.1 | 0.00 | 1.28 | 1.28 | 100 | 1005.1 |
| 20260505205757 | 83 | 169 | 2.6 | 6.1 | 0.00 | 1.28 | 1.28 | 100 | 1005.1 |
| 20260505205657 | 84 | 176 | 2.6 | 6.1 | 0.00 | 1.28 | 1.28 | 100 | 1005.1 |
| 20260505205557 | 84 | 166 | 2.6 | 6.1 | 0.00 | 1.28 | 1.28 | 100 | 1005.1 |
| 20260505205457 | 84 | 159 | 3.5 | 6.1 | 0.00 | 1.28 | 1.28 | 100 | 1005.1 |
| 20260505205357 | 84 | 159 | 3.5 | 6.1 | 0.00 | 1.28 | 1.28 | 100 | 1005.1 |
| 20260505205305 | 84 | 159 | 3.5 | 6.1 | 0.00 | 1.28 | 1.28 | 100 | 1005.1 |
| 20260505205158 | 84 | 227 | 2.6 | 6.1 | 0.00 | 1.28 | 1.28 | 100 | 1005.1 |
| 20260505205056 | 84 | 197 | 2.6 | 6.1 | 0.00 | 1.28 | 1.28 | 100 | 1005.2 |
| 20260505204956 | 84 | 135 | 3.5 | 6.1 | 0.00 | 1.28 | 1.28 | 100 | 1005.2 |
| 20260505204857 | 84 | 200 | 3.5 | 8.7 | 0.00 | 1.28 | 1.28 | 100 | 1005.2 |
| 20260505204758 | 84 | 158 | 1.7 | 8.7 | 0.00 | 1.28 | 1.28 | 100 | 1005.2 |
| 20260505204657 | 84 | 192 | 2.6 | 8.7 | 0.00 | 1.28 | 1.28 | 100 | 1005.2 |
| 20260505204558 | 84 | 188 | 3.5 | 8.7 | 0.00 | 1.28 | 1.28 | 100 | 1005.2 |
| 20260505204455 | 84 | 152 | 2.6 | 8.7 | 0.00 | 1.28 | 1.28 | 100 | 1005.1 |
| 20260505204351 | 84 | 166 | 3.5 | 8.7 | 0.00 | 1.28 | 1.28 | 100 | 1005.1 |
| 20260505204232 | 84 | 219 | 2.6 | 8.7 | 0.00 | 1.28 | 1.28 | 100 | 1005.2 |
| 20260505204132 | 84 | 197 | 4.3 | 8.7 | 0.00 | 1.28 | 1.28 | 100 | 1005.2 |
| 20260505204032 | 84 | 207 | 4.3 | 8.7 | 0.00 | 1.28 | 1.28 | 100 | 1005.2 |
| 20260505203928 | 84 | 240 | 4.3 | 8.7 | 0.00 | 1.28 | 1.28 | 100 | 1005.1 |
| 20260505203826 | 84 | 203 | 4.3 | 7.8 | 0.00 | 1.28 | 1.28 | 100 | 1005.2 |
| 20260505203722 | 84 | 219 | 6.1 | 7.8 | 0.00 | 1.28 | 1.28 | 100 | 1005.2 |
| 20260505203621 | 84 | 221 | 5.2 | 7.8 | 0.00 | 1.28 | 1.28 | 100 | 1005.2 |
| 20260505203510 | 84 | 213 | 4.3 | 7.8 | 0.00 | 1.28 | 1.28 | 100 | 1005.3 |
| 20260505203408 | 84 | 159 | 4.3 | 7.8 | 0.00 | 1.28 | 1.28 | 100 | 1005.3 |
| 20260505203304 | 84 | 134 | 3.5 | 7.8 | 0.00 | 1.28 | 1.28 | 100 | 1005.3 |
| 20260505203204 | 84 | 162 | 2.6 | 6.1 | 0.00 | 1.28 | 1.28 | 100 | 1005.3 |
| 20260505203103 | 84 | 190 | 1.7 | 6.1 | 0.00 | 1.28 | 1.28 | 100 | 1005.3 |
| 20260505203002 | 84 | 224 | 2.6 | 6.1 | 0.00 | 1.28 | 1.28 | 100 | 1005.4 |
| 20260505202902 | 84 | 158 | 2.6 | 6.1 | 0.00 | 1.28 | 1.28 | 100 | 1005.4 |
| 20260505202803 | 84 | 164 | 3.5 | 6.1 | 0.00 | 1.28 | 1.28 | 100 | 1005.4 |
| 20260505202703 | 84 | 154 | 3.5 | 6.1 | 0.00 | 1.28 | 1.28 | 100 | 1005.4 |
| 20260505202603 | 84 | 195 | 3.5 | 6.1 | 0.00 | 1.28 | 1.28 | 100 | 1005.4 |
| 20260505202504 | 84 | 164 | 3.5 | 6.1 | 0.00 | 1.28 | 1.28 | 100 | 1005.4 |
| 20260505202403 | 84 | 137 | 4.3 | 6.1 | 0.00 | 1.28 | 1.28 | 100 | 1005.4 |
| 20260505202306 | 85 | 133 | 3.5 | 7.8 | 0.00 | 1.28 | 1.28 | 100 | 1005.4 |
| 20260505202203 | 85 | 142 | 4.3 | 8.7 | 0.00 | 1.28 | 1.28 | 100 | 1005.5 |
| 20260505202103 | 85 | 161 | 5.2 | 8.7 | 0.00 | 1.28 | 1.28 | 100 | 1005.5 |
| 20260505202002 | 85 | 180 | 3.5 | 8.7 | 0.00 | 1.28 | 1.28 | 100 | 1005.5 |
| 20260505201903 | 85 | 152 | 2.6 | 8.7 | 0.00 | 1.28 | 1.28 | 100 | 1005.5 |
| 20260505201802 | 85 | 212 | 1.7 | 8.7 | 0.00 | 1.28 | 1.28 | 100 | 1005.5 |
| 20260505201704 | 84 | 120 | 1.7 | 8.7 | 0.00 | 1.28 | 1.28 | 100 | 1005.5 |
| 20260505201603 | 84 | 165 | 1.7 | 10.4 | 0.00 | 1.28 | 1.28 | 100 | 1005.6 |
| 20260505201503 | 84 | 173 | 2.6 | 10.4 | 0.00 | 1.28 | 1.28 | 100 | 1005.6 |
| 20260505201402 | 84 | 176 | 4.3 | 10.4 | 0.00 | 1.28 | 1.28 | 100 | 1005.6 |
| 20260505201303 | 84 | 169 | 3.5 | 10.4 | 0.00 | 1.28 | 1.28 | 100 | 1005.6 |
| 20260505201203 | 84 | 166 | 2.6 | 10.4 | 0.00 | 1.28 | 1.28 | 100 | 1005.6 |
| 20260505201102 | 84 | 152 | 4.3 | 13.0 | 0.00 | 1.28 | 1.28 | 100 | 1005.7 |
| 20260505201003 | 84 | 151 | 6.1 | 13.0 | 0.00 | 1.28 | 1.28 | 100 | 1005.7 |
| 20260505200903 | 84 | 210 | 5.2 | 13.0 | 0.00 | 1.28 | 1.28 | 100 | 1005.6 |
| 20260505200804 | 84 | 251 | 5.2 | 13.0 | 0.00 | 1.28 | 1.28 | 100 | 1005.7 |
| 20260505200703 | 84 | 210 | 4.3 | 13.0 | 0.00 | 1.28 | 1.28 | 100 | 1005.7 |
| 20260505200602 | 83 | 244 | 3.5 | 13.0 | 0.00 | 1.28 | 1.28 | 100 | 1005.7 |
| 20260505200503 | 83 | 203 | 3.5 | 13.0 | 0.00 | 1.28 | 1.28 | 100 | 1005.8 |
| 20260505200403 | 83 | 237 | 5.2 | 13.0 | 0.00 | 1.28 | 1.28 | 100 | 1005.7 |
| 20260505200303 | 83 | 157 | 7.0 | 13.0 | 0.00 | 1.28 | 1.28 | 100 | 1005.8 |
| 20260505200203 | 83 | 235 | 6.1 | 13.0 | 0.00 | 1.28 | 1.28 | 100 | 1005.7 |
| 20260505200057 | 83 | 148 | 4.3 | 12.2 | 0.00 | 1.28 | 1.28 | 100 | 1005.7 |
| 20260505195957 | 83 | 168 | 5.2 | 12.2 | 0.00 | 1.28 | 1.28 | 100 | 1005.8 |
| 20260505195855 | 83 | 185 | 6.1 | 12.2 | 0.00 | 1.28 | 1.28 | 100 | 1005.8 |
| 20260505195755 | 83 | 254 | 6.1 | 12.2 | 0.00 | 1.28 | 1.28 | 100 | 1005.9 |
| 20260505195656 | 83 | 200 | 4.3 | 10.4 | 0.00 | 1.28 | 1.28 | 100 | 1005.9 |
| 20260505195554 | 83 | 231 | 4.3 | 10.4 | 0.00 | 1.28 | 1.28 | 100 | 1005.9 |
| 20260505195456 | 83 | 183 | 4.3 | 10.4 | 0.00 | 1.28 | 1.28 | 100 | 1005.8 |
| 20260505195354 | 83 | 161 | 6.1 | 13.0 | 0.00 | 1.28 | 1.28 | 100 | 1005.9 |
| 20260505195256 | 83 | 223 | 6.1 | 13.0 | 0.00 | 1.28 | 1.28 | 100 | 1005.8 |
| 20260505195155 | 83 | 164 | 4.3 | 13.0 | 0.00 | 1.28 | 1.28 | 100 | 1005.8 |
| 20260505195054 | 83 | 189 | 5.2 | 13.0 | 0.00 | 1.28 | 1.28 | 100 | 1005.8 |
| 20260505194954 | 83 | 206 | 5.2 | 13.0 | 0.00 | 1.28 | 1.28 | 100 | 1005.8 |
| 20260505194855 | 83 | 252 | 5.2 | 13.0 | 0.00 | 1.28 | 1.28 | 100 | 1005.8 |
| 20260505194755 | 83 | 243 | 5.2 | 13.0 | 0.00 | 1.28 | 1.28 | 100 | 1005.7 |
| 20260505194654 | 83 | 243 | 4.3 | 13.0 | 0.00 | 1.28 | 1.28 | 100 | 1005.7 |
| 20260505194554 | 83 | 216 | 5.2 | 13.0 | 0.00 | 1.28 | 1.28 | 100 | 1005.8 |
| 20260505194456 | 83 | 195 | 4.3 | 13.0 | 0.00 | 1.28 | 1.28 | 100 | 1005.8 |
| 20260505194356 | 83 | 243 | 2.6 | 10.4 | 0.00 | 1.28 | 1.28 | 100 | 1005.8 |
| 20260505194255 | 82 | 224 | 3.5 | 10.4 | 0.00 | 1.28 | 1.28 | 100 | 1005.7 |
| 20260505194154 | 82 | 161 | 2.6 | 11.3 | 0.00 | 1.28 | 1.28 | 100 | 1005.7 |
| 20260505194056 | 82 | 178 | 3.5 | 11.3 | 0.00 | 1.28 | 1.28 | 100 | 1005.7 |
| 20260505193955 | 82 | 216 | 5.2 | 11.3 | 0.00 | 1.28 | 1.28 | 100 | 1005.8 |
| 20260505193855 | 82 | 206 | 4.3 | 11.3 | 0.00 | 1.28 | 1.28 | 100 | 1005.9 |
| 20260505193756 | 82 | 186 | 5.2 | 11.3 | 0.00 | 1.28 | 1.28 | 100 | 1005.9 |
| 20260505193656 | 82 | 165 | 7.0 | 11.3 | 0.00 | 1.28 | 1.28 | 100 | 1005.9 |
| 20260505193556 | 82 | 179 | 6.1 | 11.3 | 0.00 | 1.28 | 1.28 | 100 | 1006.0 |
| 20260505193454 | 82 | 217 | 6.1 | 11.3 | 0.00 | 1.28 | 1.28 | 100 | 1006.0 |
| 20260505193355 | 82 | 217 | 7.0 | 11.3 | 0.00 | 1.28 | 1.28 | 100 | 1006.0 |
| 20260505193255 | 82 | 210 | 7.0 | 11.3 | 0.00 | 1.28 | 1.28 | 100 | 1006.1 |
| 20260505193154 | 82 | 230 | 5.2 | 9.6 | 0.00 | 1.28 | 1.28 | 100 | 1006.1 |
| 20260505193054 | 82 | 223 | 4.3 | 6.1 | 0.00 | 1.28 | 1.28 | 100 | 1006.1 |
| 20260505192954 | 82 | 214 | 4.3 | 6.1 | 0.00 | 1.28 | 1.28 | 100 | 1006.1 |
| 20260505192855 | 82 | 271 | 3.5 | 6.1 | 0.00 | 1.28 | 1.28 | 100 | 1006.2 |
| 20260505192755 | 82 | 248 | 3.5 | 6.1 | 0.00 | 1.28 | 1.28 | 100 | 1006.2 |
| 20260505192656 | 82 | 161 | 3.5 | 6.1 | 0.00 | 1.28 | 1.28 | 100 | 1006.2 |
| 20260505192554 | 82 | 164 | 2.6 | 5.2 | 0.00 | 1.28 | 1.28 | 100 | 1006.2 |
| 20260505192455 | 82 | 204 | 2.6 | 5.2 | 0.00 | 1.28 | 1.28 | 100 | 1006.2 |
| 20260505192355 | 82 | 158 | 2.6 | 5.2 | 0.00 | 1.28 | 1.28 | 100 | 1006.2 |
| 20260505192254 | 82 | 171 | 3.5 | 5.2 | 0.00 | 1.28 | 1.28 | 100 | 1006.2 |
| 20260505192155 | 82 | 176 | 2.6 | 9.6 | 0.00 | 1.28 | 1.28 | 100 | 1006.1 |
| 20260505192054 | 82 | 137 | 1.7 | 9.6 | 0.00 | 1.28 | 1.28 | 100 | 1006.2 |
| 20260505191954 | 82 | 165 | 0.9 | 9.6 | 0.00 | 1.28 | 1.28 | 100 | 1006.1 |
| 20260505191856 | 81 | 183 | 0.9 | 9.6 | 0.00 | 1.28 | 1.28 | 100 | 1006.2 |
| 20260505191755 | 81 | 185 | 1.7 | 9.6 | 0.00 | 1.28 | 1.28 | 100 | 1006.2 |
| 20260505191655 | 81 | 149 | 2.6 | 9.6 | 0.00 | 1.28 | 1.28 | 100 | 1006.3 |
| 20260505191555 | 81 | 131 | 3.5 | 9.6 | 0.00 | 1.28 | 1.28 | 100 | 1006.2 |
| 20260505191455 | 81 | 155 | 1.7 | 9.6 | 0.00 | 1.28 | 1.28 | 100 | 1006.2 |
| 20260505191355 | 81 | 154 | 2.6 | 9.6 | 0.00 | 1.28 | 1.28 | 100 | 1006.2 |
| 20260505191254 | 81 | 155 | 4.3 | 9.6 | 0.00 | 1.28 | 1.28 | 100 | 1006.3 |
| 20260505191155 | 81 | 213 | 5.2 | 8.7 | 0.00 | 1.28 | 1.28 | 100 | 1006.2 |
| 20260505191055 | 81 | 169 | 5.2 | 8.7 | 0.00 | 1.28 | 1.28 | 100 | 1006.2 |
| 20260505190953 | 81 | 193 | 4.3 | 8.7 | 0.00 | 1.28 | 1.28 | 100 | 1006.3 |
| 20260505190855 | 81 | 206 | 3.5 | 8.7 | 1.28 | 1.28 | 1.28 | 100 | 1006.3 |
| 20260505190755 | 81 | 72 | 2.6 | 8.7 | 1.28 | 1.28 | 1.28 | 100 | 1006.3 |
| 20260505190654 | 81 | 190 | 4.3 | 8.7 | 1.28 | 1.28 | 1.28 | 100 | 1006.4 |
| 20260505190555 | 81 | 196 | 4.3 | 11.3 | 1.28 | 1.28 | 1.28 | 100 | 1006.4 |
| 20260505190455 | 81 | 230 | 4.3 | 11.3 | 1.28 | 1.28 | 1.28 | 100 | 1006.4 |
| 20260505190354 | 81 | 161 | 3.5 | 11.3 | 1.28 | 1.28 | 1.28 | 100 | 1006.4 |
| 20260505190254 | 81 | 161 | 3.5 | 11.3 | 1.28 | 1.28 | 1.28 | 100 | 1006.4 |
| 20260505190131 | 81 | 176 | 3.5 | 11.3 | 1.28 | 1.28 | 1.28 | 100 | 1006.4 |
| 20260505190019 | 80 | 166 | 3.5 | 11.3 | 1.28 | 1.28 | 1.28 | 100 | 1006.5 |
| 20260505185909 | 81 | 197 | 4.3 | 11.3 | 1.28 | 1.28 | 1.28 | 100 | 1006.4 |
| 20260505185808 | 81 | 209 | 7.0 | 11.3 | 1.28 | 1.28 | 1.28 | 100 | 1006.4 |
| 20260505185704 | 81 | 165 | 7.0 | 11.3 | 1.28 | 1.28 | 1.28 | 100 | 1006.4 |
| 20260505185602 | 81 | 221 | 6.1 | 10.4 | 1.28 | 1.28 | 1.28 | 100 | 1006.4 |
| 20260505185503 | 81 | 257 | 5.2 | 8.7 | 1.28 | 1.28 | 1.28 | 100 | 1006.4 |
| 20260505185404 | 81 | 234 | 5.2 | 8.7 | 1.28 | 1.28 | 1.28 | 100 | 1006.4 |
| 20260505185304 | 81 | 158 | 4.3 | 8.7 | 1.28 | 1.28 | 1.28 | 100 | 1006.4 |
| 20260505185203 | 81 | 213 | 5.2 | 8.7 | 1.28 | 1.28 | 1.28 | 100 | 1006.4 |
| 20260505185103 | 81 | 214 | 4.3 | 8.7 | 1.28 | 1.28 | 1.28 | 100 | 1006.4 |
| 20260505185003 | 81 | 188 | 2.6 | 5.2 | 1.28 | 1.28 | 1.28 | 100 | 1006.3 |
| 20260505184902 | 81 | 206 | 3.5 | 5.2 | 1.28 | 1.28 | 1.28 | 100 | 1006.4 |
| 20260505184803 | 81 | 248 | 3.5 | 5.2 | 1.28 | 1.28 | 1.28 | 100 | 1006.4 |
| 20260505184703 | 81 | 175 | 2.6 | 5.2 | 1.28 | 1.28 | 1.28 | 100 | 1006.4 |
| 20260505184603 | 81 | 166 | 2.6 | 5.2 | 1.28 | 1.28 | 1.28 | 100 | 1006.4 |
| 20260505184503 | 80 | 173 | 2.6 | 5.2 | 1.28 | 1.28 | 1.28 | 100 | 1006.3 |
| 20260505184403 | 80 | 209 | 1.7 | 5.2 | 1.28 | 1.28 | 1.28 | 100 | 1006.4 |
| 20260505184303 | 80 | 206 | 1.7 | 5.2 | 1.28 | 1.28 | 1.28 | 100 | 1006.4 |
| 20260505184202 | 80 | 192 | 3.5 | 5.2 | 1.28 | 1.28 | 1.28 | 100 | 1006.4 |
| 20260505184102 | 80 | 192 | 3.5 | 7.8 | 1.28 | 1.28 | 1.28 | 100 | 1006.4 |
| 20260505184002 | 80 | 192 | 3.5 | 10.4 | 1.28 | 1.28 | 1.28 | 100 | 1006.5 |
| 20260505183903 | 80 | 192 | 3.5 | 10.4 | 1.28 | 1.28 | 1.28 | 100 | 1006.5 |
| 20260505183803 | 80 | 192 | 3.5 | 10.4 | 1.28 | 1.28 | 1.28 | 100 | 1006.5 |
| 20260505183702 | 80 | 192 | 3.5 | 10.4 | 1.28 | 1.28 | 1.28 | 100 | 1006.4 |
| 20260505183603 | 80 | 192 | 3.5 | 10.4 | 1.28 | 1.28 | 1.28 | 100 | 1006.5 |
| 20260505183503 | 80 | 207 | 3.5 | 10.4 | 1.28 | 1.28 | 1.28 | 100 | 1006.5 |
| 20260505183402 | 80 | 203 | 3.5 | 10.4 | 1.28 | 1.28 | 1.28 | 100 | 1006.6 |
| 20260505183302 | 80 | 209 | 4.3 | 10.4 | 1.28 | 1.28 | 1.28 | 100 | 1006.6 |
| 20260505183204 | 80 | 213 | 6.1 | 10.4 | 1.28 | 1.28 | 1.28 | 100 | 1006.5 |
| 20260505183103 | 80 | 204 | 5.2 | 10.4 | 1.28 | 1.28 | 1.28 | 100 | 1006.5 |
| 20260505183003 | 80 | 178 | 3.5 | 8.7 | 1.28 | 1.28 | 1.28 | 100 | 1006.5 |
| 20260505182903 | 80 | 176 | 2.6 | 8.7 | 1.28 | 1.28 | 1.28 | 100 | 1006.4 |
| 20260505182803 | 80 | 176 | 2.6 | 8.7 | 1.28 | 1.28 | 1.28 | 100 | 1006.5 |
| 20260505182703 | 80 | 213 | 3.5 | 10.4 | 1.28 | 1.28 | 1.28 | 100 | 1006.5 |
| 20260505182603 | 80 | 221 | 4.3 | 10.4 | 1.28 | 1.28 | 1.28 | 100 | 1006.5 |
| 20260505182503 | 80 | 161 | 3.5 | 12.2 | 1.28 | 1.28 | 1.28 | 100 | 1006.5 |
| 20260505182402 | 80 | 149 | 3.5 | 12.2 | 1.28 | 1.28 | 1.28 | 100 | 1006.5 |
| 20260505182305 | 80 | 180 | 2.6 | 12.2 | 1.28 | 1.28 | 1.28 | 100 | 1006.5 |
| 20260505182203 | 80 | 217 | 4.3 | 12.2 | 1.28 | 1.28 | 1.28 | 100 | 1006.4 |
| 20260505182104 | 80 | 217 | 4.3 | 12.2 | 1.28 | 1.28 | 1.28 | 100 | 1006.5 |
| 20260505182004 | 80 | 217 | 4.3 | 12.2 | 1.28 | 1.28 | 1.28 | 100 | 1006.4 |
| 20260505181903 | 80 | 217 | 4.3 | 12.2 | 1.28 | 1.28 | 1.28 | 100 | 1006.5 |
| 20260505181802 | 80 | 149 | 4.3 | 12.2 | 1.28 | 1.28 | 1.28 | 100 | 1006.4 |
| 20260505181703 | 80 | 213 | 6.1 | 12.2 | 1.28 | 1.28 | 1.28 | 100 | 1006.5 |
| 20260505181603 | 80 | 179 | 7.8 | 12.2 | 1.28 | 1.28 | 1.28 | 100 | 1006.4 |
| 20260505181503 | 80 | 241 | 6.1 | 11.3 | 1.28 | 1.28 | 1.28 | 100 | 1006.5 |
| 20260505181401 | 80 | 162 | 4.3 | 8.7 | 1.28 | 1.28 | 1.28 | 100 | 1006.5 |
| 20260505181302 | 80 | 165 | 4.3 | 8.7 | 1.28 | 1.28 | 1.28 | 100 | 1006.5 |
| 20260505181203 | 79 | 219 | 5.2 | 8.7 | 1.28 | 1.28 | 1.28 | 100 | 1006.5 |
| 20260505181102 | 79 | 149 | 5.2 | 8.7 | 1.28 | 1.28 | 1.28 | 100 | 1006.6 |
| 20260505181002 | 79 | 237 | 6.1 | 8.7 | 1.28 | 0.00 | 0.00 | 100 | 1006.6 |
| 20260505180902 | 79 | 231 | 6.1 | 8.7 | 0.00 | 0.00 | 0.00 | 100 | 1006.5 |
| 20260505180804 | 79 | 220 | 4.3 | 8.7 | 0.00 | 0.00 | 0.00 | 100 | 1006.6 |
| 20260505180704 | 79 | 254 | 3.5 | 8.7 | 0.00 | 0.00 | 0.00 | 100 | 1006.6 |
| 20260505180604 | 79 | 217 | 5.2 | 8.7 | 0.00 | 0.00 | 0.00 | 100 | 1006.6 |
| 20260505180502 | 79 | 179 | 7.8 | 8.7 | 0.00 | 0.00 | 0.00 | 100 | 1006.6 |
| 20260505180403 | 79 | 157 | 7.8 | 8.7 | 0.00 | 0.00 | 0.00 | 100 | 1006.6 |
| 20260505180302 | 79 | 200 | 3.5 | 8.7 | 0.00 | 0.00 | 0.00 | 100 | 1006.6 |
| 20260505180202 | 79 | 245 | 2.6 | 8.7 | 0.00 | 0.00 | 0.00 | 100 | 1006.5 |
| 20260505180005 | 79 | 237 | 2.6 | 8.7 | 0.00 | 0.00 | 0.00 | 100 | 1006.5 |
| 20260505175902 | 79 | 214 | 3.5 | 8.7 | 0.00 | 0.00 | 0.00 | 100 | 1006.6 |
| 20260505175802 | 79 | 217 | 4.3 | 8.7 | 0.00 | 0.00 | 0.00 | 100 | 1006.5 |
| 20260505175703 | 79 | 183 | 3.5 | 7.8 | 0.00 | 0.00 | 0.00 | 100 | 1006.5 |
| 20260505175602 | 78 | 238 | 3.5 | 7.8 | 0.00 | 0.00 | 0.00 | 100 | 1006.6 |
| 20260505175504 | 78 | 207 | 2.6 | 7.8 | 0.00 | 0.00 | 0.00 | 100 | 1006.6 |
| 20260505175403 | 78 | 209 | 2.6 | 7.8 | 0.00 | 0.00 | 0.00 | 100 | 1006.6 |
| 20260505175305 | 78 | 243 | 3.5 | 7.8 | 0.00 | 0.00 | 0.00 | 100 | 1006.6 |
| 20260505175203 | 78 | 213 | 2.6 | 7.8 | 0.00 | 0.00 | 0.00 | 100 | 1006.6 |
| 20260505175104 | 78 | 199 | 2.6 | 7.8 | 0.00 | 0.00 | 0.00 | 100 | 1006.6 |
| 20260505175003 | 78 | 245 | 2.6 | 7.8 | 0.00 | 0.00 | 0.00 | 100 | 1006.6 |
| 20260505174902 | 78 | 220 | 1.7 | 6.1 | 0.00 | 0.00 | 0.00 | 100 | 1006.6 |
| 20260505174804 | 78 | 162 | 1.7 | 6.1 | 0.00 | 0.00 | 0.00 | 100 | 1006.6 |
| 20260505174702 | 78 | 161 | 2.6 | 10.4 | 0.00 | 0.00 | 0.00 | 100 | 1006.7 |
| 20260505174602 | 78 | 209 | 5.2 | 10.4 | 0.00 | 0.00 | 0.00 | 100 | 1006.7 |
| 20260505174505 | 78 | 183 | 3.5 | 10.4 | 0.00 | 0.00 | 0.00 | 100 | 1006.8 |
| 20260505174404 | 78 | 182 | 3.5 | 10.4 | 0.00 | 0.00 | 0.00 | 100 | 1006.8 |
| 20260505174304 | 78 | 180 | 3.5 | 10.4 | 0.00 | 0.00 | 0.00 | 100 | 1006.8 |
| 20260505174203 | 78 | 231 | 3.5 | 10.4 | 0.00 | 0.00 | 0.00 | 100 | 1006.9 |
| 20260505174102 | 78 | 207 | 3.5 | 10.4 | 0.00 | 0.00 | 0.00 | 100 | 1006.9 |
| 20260505174003 | 78 | 235 | 4.3 | 10.4 | 0.00 | 0.00 | 0.00 | 100 | 1006.9 |
| 20260505173902 | 78 | 228 | 4.3 | 10.4 | 0.00 | 0.00 | 0.00 | 100 | 1007.0 |
| 20260505173802 | 78 | 210 | 3.5 | 9.6 | 0.00 | 0.00 | 0.00 | 100 | 1007.0 |
| 20260505173702 | 78 | 258 | 3.5 | 9.6 | 0.00 | 0.00 | 0.00 | 100 | 1007.0 |
| 20260505173604 | 78 | 237 | 4.3 | 9.6 | 0.00 | 0.00 | 0.00 | 100 | 1007.0 |
| 20260505173503 | 78 | 182 | 2.6 | 9.6 | 0.00 | 0.00 | 0.00 | 100 | 1007.1 |
| 20260505173403 | 78 | 221 | 1.7 | 9.6 | 0.00 | 0.00 | 0.00 | 100 | 1007.0 |
| 20260505173302 | 78 | 237 | 3.5 | 9.6 | 0.00 | 0.00 | 0.00 | 100 | 1007.0 |
| 20260505173203 | 78 | 196 | 4.3 | 9.6 | 0.00 | 0.00 | 0.00 | 100 | 1007.0 |
| 20260505173101 | 78 | 220 | 5.2 | 9.6 | 0.00 | 0.00 | 0.00 | 100 | 1007.0 |
| 20260505173003 | 78 | 189 | 6.1 | 9.6 | 0.00 | 0.00 | 0.00 | 100 | 1007.0 |
| 20260505172902 | 78 | 227 | 5.2 | 8.7 | 0.00 | 0.00 | 0.00 | 100 | 1007.0 |
| 20260505172804 | 78 | 227 | 4.3 | 8.7 | 0.00 | 0.00 | 0.00 | 100 | 1007.0 |
| 20260505172703 | 78 | 203 | 3.5 | 8.7 | 0.00 | 0.00 | 0.00 | 100 | 1007.0 |
| 20260505172603 | 78 | 231 | 2.6 | 8.7 | 0.00 | 0.00 | 0.00 | 100 | 1007.0 |
| 20260505172504 | 78 | 162 | 2.6 | 9.6 | 0.00 | 0.00 | 0.00 | 100 | 1007.0 |
| 20260505172404 | 78 | 196 | 2.6 | 9.6 | 0.00 | 0.00 | 0.00 | 100 | 1006.9 |
| 20260505172306 | 78 | 196 | 3.5 | 9.6 | 0.00 | 0.00 | 0.00 | 100 | 1007.0 |
| 20260505172204 | 78 | 185 | 2.6 | 9.6 | 0.00 | 0.00 | 0.00 | 100 | 1007.1 |
| 20260505172102 | 78 | 199 | 2.6 | 9.6 | 0.00 | 0.00 | 0.00 | 100 | 1007.0 |
| 20260505172004 | 78 | 228 | 3.5 | 9.6 | 0.00 | 0.00 | 0.00 | 100 | 1007.0 |
| 20260505171903 | 78 | 169 | 4.3 | 9.6 | 0.00 | 0.00 | 0.00 | 100 | 1007.0 |
| 20260505171803 | 78 | 207 | 4.3 | 9.6 | 0.00 | 0.00 | 0.00 | 100 | 1007.0 |
| 20260505171703 | 78 | 214 | 5.2 | 9.6 | 0.00 | 0.00 | 0.00 | 100 | 1007.0 |
| 20260505171602 | 78 | 219 | 5.2 | 9.6 | 0.00 | 0.00 | 0.00 | 100 | 1007.0 |
| 20260505171502 | 78 | 207 | 5.2 | 8.7 | 0.00 | 0.00 | 0.00 | 100 | 1007.1 |
| 20260505171403 | 78 | 147 | 5.2 | 8.7 | 0.00 | 0.00 | 0.00 | 100 | 1007.0 |
| 20260505171304 | 78 | 199 | 5.2 | 10.4 | 0.00 | 0.00 | 0.00 | 100 | 1007.0 |
| 20260505171203 | 78 | 233 | 3.5 | 10.4 | 0.00 | 0.00 | 0.00 | 100 | 1007.0 |
| 20260505171103 | 78 | 210 | 2.6 | 10.4 | 0.00 | 0.00 | 0.00 | 100 | 1006.9 |
| 20260505171002 | 78 | 180 | 2.6 | 10.4 | 0.00 | 0.00 | 0.00 | 100 | 1006.9 |
| 20260505170903 | 78 | 200 | 2.6 | 10.4 | 0.00 | 0.00 | 0.00 | 100 | 1006.9 |
| 20260505170803 | 78 | 169 | 2.6 | 10.4 | 0.00 | 0.00 | 0.00 | 100 | 1006.9 |
| 20260505170704 | 78 | 158 | 1.7 | 10.4 | 0.00 | 0.00 | 0.00 | 100 | 1007.0 |
| 20260505170603 | 78 | 192 | 1.7 | 10.4 | 0.00 | 0.00 | 0.00 | 100 | 1006.9 |
| 20260505170503 | 78 | 141 | 2.6 | 10.4 | 0.00 | 0.00 | 0.00 | 100 | 1006.9 |
| 20260505170403 | 78 | 161 | 2.6 | 10.4 | 0.00 | 0.00 | 0.00 | 100 | 1006.9 |
| 20260505170303 | 78 | 168 | 2.6 | 5.2 | 0.00 | 0.00 | 0.00 | 100 | 1006.9 |
| 20260505170202 | 78 | 219 | 3.5 | 5.2 | 0.00 | 0.00 | 0.00 | 100 | 1006.9 |
| 20260505170103 | 78 | 220 | 3.5 | 5.2 | 0.00 | 0.00 | 0.00 | 100 | 1006.9 |
| 20260505170004 | 78 | 172 | 1.7 | 4.3 | 0.00 | 0.00 | 0.00 | 100 | 1007.0 |
| 20260505165903 | 78 | 212 | 2.6 | 6.1 | 0.00 | 0.00 | 0.00 | 100 | 1006.9 |
| 20260505165803 | 78 | 213 | 2.6 | 6.1 | 0.00 | 0.00 | 0.00 | 100 | 1007.0 |
| 20260505165703 | 78 | 228 | 1.7 | 6.1 | 0.00 | 0.00 | 0.00 | 100 | 1006.9 |
| 20260505165602 | 78 | 186 | 2.6 | 6.1 | 0.00 | 0.00 | 0.00 | 100 | 1007.0 |
| 20260505165502 | 78 | 265 | 2.6 | 6.1 | 0.00 | 0.00 | 0.00 | 100 | 1007.0 |
| 20260505165403 | 78 | 197 | 1.7 | 6.1 | 0.00 | 0.00 | 0.00 | 100 | 1007.0 |
| 20260505165306 | 78 | 169 | 2.6 | 6.1 | 0.00 | 0.00 | 0.00 | 100 | 1007.1 |
| 20260505165202 | 78 | 176 | 2.6 | 7.8 | 0.00 | 0.00 | 0.00 | 100 | 1007.1 |
| 20260505165102 | 78 | 165 | 2.6 | 7.8 | 0.00 | 0.00 | 0.00 | 100 | 1007.0 |
| 20260505165004 | 78 | 188 | 1.7 | 7.8 | 0.00 | 0.00 | 0.00 | 100 | 1007.1 |
| 20260505164902 | 78 | 214 | 0.0 | 7.8 | 0.00 | 0.00 | 0.00 | 100 | 1007.1 |
| 20260505164803 | 78 | 227 | 0.9 | 7.8 | 0.00 | 0.00 | 0.00 | 100 | 1007.0 |
| 20260505164702 | 78 | 227 | 3.5 | 7.8 | 0.00 | 0.00 | 0.00 | 100 | 1007.1 |
| 20260505164603 | 78 | 195 | 3.5 | 7.8 | 0.00 | 0.00 | 0.00 | 100 | 1007.1 |
| 20260505164503 | 78 | 223 | 3.5 | 7.8 | 0.00 | 0.00 | 0.00 | 100 | 1007.1 |
| 20260505164403 | 78 | 169 | 4.3 | 7.8 | 0.00 | 0.00 | 0.00 | 100 | 1007.1 |
| 20260505164304 | 78 | 197 | 3.5 | 7.8 | 0.00 | 0.00 | 0.00 | 100 | 1007.1 |
| 20260505164202 | 78 | 148 | 0.9 | 6.1 | 0.00 | 0.00 | 0.00 | 100 | 1007.0 |
| 20260505164104 | 78 | 190 | 0.9 | 6.1 | 0.00 | 0.00 | 0.00 | 100 | 1007.1 |
| 20260505163955 | 78 | 185 | 1.7 | 6.1 | 0.00 | 0.00 | 0.00 | 100 | 1007.0 |
| 20260505163850 | 78 | 204 | 2.6 | 6.1 | 0.00 | 0.00 | 0.00 | 100 | 1007.0 |
| 20260505163748 | 78 | 161 | 1.7 | 4.3 | 0.00 | 0.00 | 0.00 | 100 | 1007.0 |
| 20260505163649 | 78 | 188 | 0.9 | 3.5 | 0.00 | 0.00 | 0.00 | 100 | 1007.0 |
| 20260505163550 | 78 | 165 | 0.0 | 2.6 | 0.00 | 0.00 | 0.00 | 100 | 1006.9 |
| 20260505163449 | 78 | 166 | 0.9 | 3.5 | 0.00 | 0.00 | 0.00 | 100 | 1006.9 |
| 20260505163349 | 78 | 166 | 0.9 | 3.5 | 0.00 | 0.00 | 0.00 | 100 | 1007.0 |
| 20260505163248 | 78 | 168 | 0.0 | 3.5 | 0.00 | 0.00 | 0.00 | 100 | 1007.0 |
| 20260505163148 | 78 | 168 | 0.0 | 3.5 | 0.00 | 0.00 | 0.00 | 100 | 1007.0 |
| 20260505163050 | 77 | 168 | 1.7 | 3.5 | 0.00 | 0.00 | 0.00 | 100 | 1007.0 |
| 20260505162950 | 77 | 179 | 1.7 | 3.5 | 0.00 | 0.00 | 0.00 | 100 | 1007.0 |
| 20260505162848 | 77 | 195 | 1.7 | 3.5 | 0.00 | 0.00 | 0.00 | 100 | 1007.0 |
| 20260505162748 | 77 | 162 | 0.9 | 3.5 | 0.00 | 0.00 | 0.00 | 100 | 1007.0 |
| 20260505162650 | 77 | 161 | 1.7 | 3.5 | 0.00 | 0.00 | 0.00 | 100 | 1007.0 |
| 20260505162549 | 77 | 162 | 1.7 | 3.5 | 0.00 | 0.00 | 0.00 | 100 | 1006.9 |
| 20260505162449 | 77 | 185 | 0.0 | 3.5 | 0.00 | 0.00 | 0.00 | 100 | 1007.0 |
| 20260505162350 | 77 | 158 | 0.0 | 3.5 | 0.00 | 0.00 | 0.00 | 100 | 1007.1 |
| 20260505162248 | 77 | 158 | 0.0 | 3.5 | 0.00 | 0.00 | 0.00 | 100 | 1007.0 |
| 20260505162149 | 77 | 158 | 0.0 | 3.5 | 0.00 | 0.00 | 0.00 | 100 | 1007.0 |
| 20260505162050 | 77 | 158 | 0.0 | 4.3 | 0.00 | 0.00 | 0.00 | 100 | 1007.0 |
| 20260505161949 | 77 | 158 | 0.9 | 4.3 | 0.00 | 0.00 | 0.00 | 100 | 1006.9 |
| 20260505161849 | 77 | 161 | 1.7 | 4.3 | 0.00 | 0.00 | 0.00 | 100 | 1007.0 |
| 20260505161750 | 77 | 159 | 0.9 | 5.2 | 0.00 | 0.00 | 0.00 | 100 | 1007.0 |
| 20260505161649 | 77 | 188 | 0.9 | 5.2 | 0.00 | 0.00 | 0.00 | 100 | 1007.0 |
| 20260505161549 | 77 | 188 | 1.7 | 5.2 | 0.00 | 0.00 | 0.00 | 100 | 1007.1 |
| 20260505161449 | 77 | 202 | 1.7 | 5.2 | 0.00 | 0.00 | 0.00 | 100 | 1007.0 |
| 20260505161349 | 77 | 200 | 1.7 | 5.2 | 0.00 | 0.00 | 0.00 | 100 | 1007.0 |
| 20260505161249 | 77 | 220 | 1.7 | 6.1 | 0.00 | 0.00 | 0.00 | 100 | 1006.9 |
| 20260505161149 | 77 | 223 | 1.7 | 6.1 | 0.00 | 0.00 | 0.00 | 100 | 1007.0 |
| 20260505161048 | 77 | 210 | 1.7 | 6.1 | 0.00 | 0.00 | 0.00 | 100 | 1007.1 |
| 20260505160948 | 77 | 228 | 1.7 | 8.7 | 0.00 | 0.00 | 0.00 | 100 | 1007.0 |
| 20260505160849 | 77 | 178 | 1.7 | 8.7 | 0.00 | 0.00 | 0.00 | 100 | 1007.0 |
| 20260505160749 | 77 | 220 | 1.7 | 8.7 | 0.00 | 0.00 | 0.00 | 100 | 1007.0 |
| 20260505160649 | 76 | 158 | 1.7 | 8.7 | 0.00 | 0.00 | 0.00 | 100 | 1007.0 |
| 20260505160548 | 76 | 204 | 1.7 | 8.7 | 0.00 | 0.00 | 0.00 | 100 | 1007.0 |
| 20260505160448 | 76 | 212 | 2.6 | 8.7 | 0.00 | 0.00 | 0.00 | 100 | 1007.1 |
| 20260505160348 | 76 | 202 | 2.6 | 8.7 | 0.00 | 0.00 | 0.00 | 100 | 1007.1 |
| 20260505160248 | 76 | 140 | 2.6 | 8.7 | 0.00 | 0.00 | 0.00 | 100 | 1007.0 |
| 20260505160147 | 76 | 159 | 2.6 | 8.7 | 0.00 | 0.00 | 0.00 | 100 | 1007.1 |
| 20260505153348 | 77 | 169 | 3.5 | 6.1 | 0.00 | 0.00 | 0.00 | 100 | 1007.1 |
| 20260505153247 | 77 | 193 | 3.5 | 6.1 | 0.00 | 0.00 | 0.00 | 100 | 1007.1 |
| 20260505153147 | 77 | 179 | 3.5 | 6.1 | 0.00 | 0.00 | 0.00 | 100 | 1007.1 |
| 20260505153047 | 77 | 209 | 3.5 | 6.1 | 0.00 | 0.00 | 0.00 | 100 | 1007.0 |
| 20260505152947 | 77 | 202 | 3.5 | 6.1 | 0.00 | 0.00 | 0.00 | 100 | 1007.0 |
| 20260505152849 | 77 | 227 | 3.5 | 6.1 | 0.00 | 0.00 | 0.00 | 100 | 1006.9 |
| 20260505152748 | 77 | 217 | 3.5 | 6.1 | 0.00 | 0.00 | 0.00 | 100 | 1006.9 |
| 20260505152649 | 77 | 193 | 3.5 | 6.1 | 0.00 | 0.00 | 0.00 | 100 | 1006.9 |
| 20260505152549 | 77 | 204 | 3.5 | 6.1 | 0.00 | 0.00 | 0.00 | 100 | 1007.0 |
| 20260505152448 | 77 | 202 | 3.5 | 6.1 | 0.00 | 0.00 | 0.00 | 100 | 1006.9 |
| 20260505152348 | 77 | 261 | 3.5 | 7.8 | 0.00 | 0.00 | 0.00 | 100 | 1006.9 |
| 20260505152249 | 77 | 179 | 3.5 | 7.8 | 0.00 | 0.00 | 0.00 | 100 | 1006.8 |
| 20260505152148 | 77 | 159 | 3.5 | 7.8 | 0.00 | 0.00 | 0.00 | 100 | 1006.9 |
| 20260505152047 | 77 | 221 | 2.6 | 7.8 | 0.00 | 0.00 | 0.00 | 100 | 1006.8 |
| 20260505151949 | 77 | 107 | 2.6 | 7.8 | 0.00 | 0.00 | 0.00 | 100 | 1006.8 |
| 20260505151848 | 77 | 216 | 2.6 | 7.8 | 0.00 | 0.00 | 0.00 | 100 | 1006.8 |
| 20260505151748 | 77 | 188 | 1.7 | 7.8 | 0.00 | 0.00 | 0.00 | 100 | 1006.8 |
| 20260505151647 | 77 | 178 | 2.6 | 7.8 | 0.00 | 0.00 | 0.00 | 100 | 1006.9 |
| 20260505151548 | 77 | 164 | 3.5 | 7.8 | 0.00 | 0.00 | 0.00 | 100 | 1006.9 |
| 20260505151447 | 77 | 192 | 2.6 | 7.8 | 0.00 | 0.00 | 0.00 | 100 | 1006.9 |
| 20260505151348 | 77 | 173 | 3.5 | 7.8 | 0.00 | 0.00 | 0.00 | 100 | 1006.8 |
| 20260505151247 | 77 | 148 | 3.5 | 7.8 | 0.00 | 0.00 | 0.00 | 100 | 1006.9 |
| 20260505151146 | 77 | 257 | 3.5 | 7.8 | 0.00 | 0.00 | 0.00 | 100 | 1006.8 |
| 20260505151047 | 77 | 202 | 3.5 | 7.8 | 0.00 | 0.00 | 0.00 | 100 | 1006.9 |
| 20260505150947 | 77 | 202 | 3.5 | 7.8 | 0.00 | 0.00 | 0.00 | 100 | 1006.9 |
| 20260505150848 | 77 | 202 | 3.5 | 7.8 | 0.00 | 0.00 | 0.00 | 100 | 1006.9 |
| 20260505150748 | 77 | 202 | 3.5 | 7.8 | 0.00 | 0.00 | 0.00 | 100 | 1006.9 |
| 20260505150648 | 77 | 195 | 3.5 | 7.8 | 0.00 | 0.00 | 0.00 | 100 | 1006.9 |
| 20260505150548 | 77 | 199 | 3.5 | 7.8 | 0.00 | 0.00 | 0.00 | 100 | 1006.9 |
| 20260505150446 | 77 | 186 | 3.5 | 4.3 | 0.00 | 0.00 | 0.00 | 100 | 1006.9 |
| 20260505150346 | 77 | 186 | 3.5 | 4.3 | 0.00 | 0.00 | 0.00 | 100 | 1006.9 |
| 20260505150247 | 77 | 220 | 2.6 | 4.3 | 0.00 | 0.00 | 0.00 | 100 | 1006.8 |
| 20260505150147 | 77 | 193 | 1.7 | 4.3 | 0.00 | 0.00 | 0.00 | 100 | 1006.8 |
| 20260505140630 | 77 | 197 | 2.6 | 8.7 | 0.00 | 0.00 | 0.00 | 100 | 1006.6 |
| 20260505140531 | 77 | 195 | 1.7 | 8.7 | 0.00 | 0.00 | 0.00 | 100 | 1006.6 |
| 20260505140431 | 77 | 224 | 1.7 | 8.7 | 0.00 | 0.00 | 0.00 | 100 | 1006.5 |
| 20260505140332 | 77 | 202 | 2.6 | 8.7 | 0.00 | 0.00 | 0.00 | 100 | 1006.5 |
| 20260505140220 | 77 | 137 | 2.6 | 8.7 | 0.00 | 0.00 | 0.00 | 100 | 1006.6 |
| 20260505140115 | 76 | 164 | 3.5 | 8.7 | 0.00 | 0.00 | 0.00 | 100 | 1006.5 |
| 20260505130303 | 75 | 197 | 3.5 | 6.1 | 0.00 | 0.00 | 0.00 | 100 | 1006.2 |
| 20260505130202 | 75 | 166 | 1.7 | 6.1 | 0.00 | 0.00 | 0.00 | 100 | 1006.2 |
| 20260505130104 | 75 | 166 | 1.7 | 5.2 | 0.00 | 0.00 | 0.00 | 100 | 1006.1 |
| 20260505125004 | 75 | 199 | 0.0 | 4.3 | 0.00 | 0.00 | 0.00 | 100 | 1006.3 |
| 20260505124902 | 75 | 140 | 0.0 | 4.3 | 0.00 | 0.00 | 0.00 | 100 | 1006.3 |
| 20260505124804 | 75 | 140 | 0.0 | 4.3 | 0.00 | 0.00 | 0.00 | 100 | 1006.4 |
| 20260505124702 | 75 | 171 | 1.7 | 4.3 | 0.00 | 0.00 | 0.00 | 100 | 1006.4 |
| 20260505124604 | 75 | 171 | 2.6 | 4.3 | 0.00 | 0.00 | 0.00 | 100 | 1006.4 |
| 20260505124504 | 75 | 130 | 0.9 | 4.3 | 0.00 | 0.00 | 0.00 | 100 | 1006.4 |
| 20260505124403 | 75 | 173 | 0.9 | 4.3 | 0.00 | 0.00 | 0.00 | 100 | 1006.3 |
| 20260505124303 | 75 | 178 | 0.9 | 4.3 | 0.00 | 0.00 | 0.00 | 100 | 1006.3 |
| 20260505124204 | 75 | 164 | 0.9 | 4.3 | 0.00 | 0.00 | 0.00 | 100 | 1006.4 |
| 20260505124102 | 75 | 203 | 0.9 | 4.3 | 0.00 | 0.00 | 0.00 | 100 | 1006.2 |
| 20260505124004 | 75 | 159 | 0.0 | 4.3 | 0.00 | 0.00 | 0.00 | 100 | 1006.3 |
| 20260505123903 | 75 | 141 | 0.9 | 4.3 | 0.00 | 0.00 | 0.00 | 100 | 1006.3 |
| 20260505123804 | 75 | 140 | 0.9 | 4.3 | 0.00 | 0.00 | 0.00 | 100 | 1006.3 |
| 20260505123703 | 74 | 154 | 0.9 | 2.6 | 0.00 | 0.00 | 0.00 | 100 | 1006.4 |
| 20260505123603 | 74 | 171 | 0.9 | 2.6 | 0.00 | 0.00 | 0.00 | 100 | 1006.4 |
| 20260505123503 | 74 | 149 | 0.9 | 2.6 | 0.00 | 0.00 | 0.00 | 100 | 1006.5 |
| 20260505123404 | 74 | 162 | 0.0 | 2.6 | 0.00 | 0.00 | 0.00 | 100 | 1006.5 |
| 20260505123301 | 74 | 162 | 0.0 | 2.6 | 0.00 | 0.00 | 0.00 | 100 | 1006.5 |
| 20260505123203 | 74 | 162 | 0.0 | 2.6 | 0.00 | 0.00 | 0.00 | 100 | 1006.6 |
| 20260505123103 | 74 | 162 | 0.9 | 3.5 | 0.00 | 0.00 | 0.00 | 100 | 1006.4 |
| 20260505123003 | 74 | 162 | 0.9 | 3.5 | 0.00 | 0.00 | 0.00 | 100 | 1006.5 |
| 20260505122902 | 74 | 203 | 0.9 | 4.3 | 0.00 | 0.00 | 0.00 | 100 | 1006.4 |
| 20260505122803 | 74 | 162 | 0.0 | 5.2 | 0.00 | 0.00 | 0.00 | 100 | 1006.4 |
| 20260505122703 | 74 | 155 | 0.0 | 5.2 | 0.00 | 0.00 | 0.00 | 100 | 1006.2 |
| 20260505122603 | 74 | 155 | 0.9 | 5.2 | 0.00 | 0.00 | 0.00 | 100 | 1006.2 |
| 20260505122503 | 74 | 154 | 0.9 | 6.1 | 0.00 | 0.00 | 0.00 | 100 | 1006.2 |
| 20260505122402 | 75 | 206 | 0.9 | 6.1 | 0.00 | 0.00 | 0.00 | 100 | 1006.2 |
| 20260505122305 | 75 | 159 | 1.7 | 6.1 | 0.00 | 0.00 | 0.00 | 100 | 1006.2 |
| 20260505122203 | 75 | 158 | 1.7 | 6.1 | 0.00 | 0.00 | 0.00 | 100 | 1006.2 |
| 20260505122102 | 75 | 152 | 1.7 | 6.1 | 0.00 | 0.00 | 0.00 | 100 | 1006.1 |
| 20260505122003 | 75 | 149 | 2.6 | 6.1 | 0.00 | 0.00 | 0.00 | 100 | 1006.1 |
| 20260505121902 | 74 | 212 | 2.6 | 6.1 | 0.00 | 0.00 | 0.00 | 100 | 1006.0 |
| 20260505121803 | 74 | 159 | 1.7 | 6.1 | 0.00 | 0.00 | 0.00 | 100 | 1006.1 |
| 20260505121701 | 74 | 176 | 2.6 | 6.1 | 0.00 | 0.00 | 0.00 | 100 | 1006.1 |
| 20260505121604 | 74 | 200 | 2.6 | 6.1 | 0.00 | 0.00 | 0.00 | 100 | 1006.1 |
| 20260505121503 | 74 | 200 | 1.7 | 2.6 | 0.00 | 0.00 | 0.00 | 100 | 1006.1 |
| 20260505121402 | 74 | 207 | 0.9 | 3.5 | 0.00 | 0.00 | 0.00 | 100 | 1006.0 |
| 20260505121303 | 74 | 200 | 1.7 | 3.5 | 0.00 | 0.00 | 0.00 | 100 | 1006.1 |
| 20260505121203 | 74 | 130 | 1.7 | 3.5 | 0.00 | 0.00 | 0.00 | 100 | 1006.0 |
| 20260505121102 | 74 | 173 | 0.9 | 3.5 | 0.00 | 0.00 | 0.00 | 100 | 1006.0 |
| 20260505121003 | 74 | 155 | 0.9 | 3.5 | 0.00 | 0.00 | 0.00 | 100 | 1006.0 |
| 20260505120902 | 74 | 172 | 0.9 | 3.5 | 0.00 | 0.00 | 0.00 | 100 | 1006.0 |
| 20260505120802 | 74 | 168 | 0.9 | 3.5 | 0.00 | 0.00 | 0.00 | 100 | 1006.0 |
| 20260505120703 | 74 | 164 | 0.9 | 3.5 | 0.00 | 0.00 | 0.00 | 100 | 1006.0 |
| 20260505120603 | 74 | 176 | 1.7 | 3.5 | 0.00 | 0.00 | 0.00 | 100 | 1006.0 |
| 20260505120503 | 74 | 173 | 2.6 | 3.5 | 0.00 | 0.00 | 0.00 | 100 | 1006.0 |
| 20260505120403 | 74 | 175 | 0.9 | 3.5 | 0.00 | 0.00 | 0.00 | 100 | 1006.0 |
| 20260505120302 | 74 | 209 | 1.7 | 3.5 | 0.00 | 0.00 | 0.00 | 100 | 1006.0 |
| 20260505120203 | 74 | 209 | 1.7 | 3.5 | 0.00 | 0.00 | 0.00 | 100 | 1005.9 |
| 20260505120103 | 74 | 209 | 1.7 | 3.5 | 0.00 | 0.00 | 0.00 | 100 | 1005.8 |
| 20260505120004 | 74 | 209 | 1.7 | 3.5 | 0.00 | 0.00 | 0.00 | 100 | 1005.9 |
| 20260505115903 | 74 | 209 | 1.7 | 3.5 | 0.00 | 0.00 | 0.00 | 100 | 1005.8 |
| 20260505115803 | 74 | 209 | 1.7 | 3.5 | 0.00 | 0.00 | 0.00 | 100 | 1006.0 |
| 20260505115703 | 74 | 209 | 1.7 | 3.5 | 0.00 | 0.00 | 0.00 | 100 | 1006.0 |
| 20260505115603 | 74 | 209 | 1.7 | 3.5 | 0.00 | 0.00 | 0.00 | 100 | 1006.1 |
| 20260505115504 | 74 | 228 | 1.7 | 2.6 | 0.00 | 0.00 | 0.00 | 100 | 1006.2 |
| 20260505115403 | 74 | 183 | 0.9 | 2.6 | 0.00 | 0.00 | 0.00 | 100 | 1006.2 |
| 20260505115305 | 74 | 165 | 0.0 | 2.6 | 0.00 | 0.00 | 0.00 | 100 | 1006.1 |
| 20260505115202 | 74 | 166 | 0.0 | 2.6 | 0.00 | 0.00 | 0.00 | 100 | 1006.2 |
| 20260505115104 | 74 | 203 | 0.0 | 3.5 | 0.00 | 0.00 | 0.00 | 100 | 1006.2 |
| 20260505115004 | 74 | 203 | 0.0 | 3.5 | 0.00 | 0.00 | 0.00 | 100 | 1006.2 |
| 20260505114903 | 74 | 152 | 0.9 | 3.5 | 0.00 | 0.00 | 0.00 | 100 | 1006.1 |
| 20260505114803 | 74 | 158 | 1.7 | 3.5 | 0.00 | 0.00 | 0.00 | 100 | 1006.1 |
| 20260505114702 | 74 | 157 | 1.7 | 3.5 | 0.00 | 0.00 | 0.00 | 100 | 1006.1 |
| 20260505114603 | 74 | 216 | 0.9 | 6.1 | 0.00 | 0.00 | 0.00 | 100 | 1006.1 |
| 20260505114502 | 74 | 176 | 0.9 | 6.1 | 0.00 | 0.00 | 0.00 | 100 | 1006.2 |
| 20260505114403 | 74 | 168 | 1.7 | 6.1 | 0.00 | 0.00 | 0.00 | 100 | 1006.2 |
| 20260505114302 | 74 | 213 | 0.9 | 6.1 | 0.00 | 0.00 | 0.00 | 100 | 1006.2 |
| 20260505114202 | 74 | 183 | 0.9 | 6.1 | 0.00 | 0.00 | 0.00 | 100 | 1006.2 |
| 20260505114102 | 74 | 176 | 0.0 | 6.1 | 0.00 | 0.00 | 0.00 | 100 | 1006.2 |
| 20260505114003 | 74 | 179 | 0.9 | 6.1 | 0.00 | 0.00 | 0.00 | 100 | 1006.2 |
| 20260505113904 | 74 | 180 | 0.0 | 6.1 | 0.00 | 0.00 | 0.00 | 100 | 1006.2 |
| 20260505113804 | 74 | 202 | 1.7 | 6.1 | 0.00 | 0.00 | 0.00 | 100 | 1006.1 |
| 20260505113703 | 74 | 193 | 1.7 | 6.1 | 0.00 | 0.00 | 0.00 | 100 | 1006.2 |
| 20260505113602 | 74 | 173 | 0.0 | 3.5 | 0.00 | 0.00 | 0.00 | 100 | 1006.0 |
| 20260505113502 | 74 | 157 | 0.9 | 3.5 | 0.00 | 0.00 | 0.00 | 100 | 1006.0 |
| 20260505113403 | 74 | 152 | 0.9 | 3.5 | 0.00 | 0.00 | 0.00 | 100 | 1006.0 |
| 20260505113303 | 74 | 162 | 0.9 | 3.5 | 0.00 | 0.00 | 0.00 | 100 | 1006.0 |
| 20260505113203 | 74 | 155 | 0.9 | 6.1 | 0.00 | 0.00 | 0.00 | 100 | 1005.9 |
| 20260505113103 | 74 | 173 | 1.7 | 6.1 | 0.00 | 0.00 | 0.00 | 100 | 1005.9 |
| 20260505113002 | 74 | 171 | 0.9 | 6.1 | 0.00 | 0.00 | 0.00 | 100 | 1006.0 |
| 20260505112903 | 74 | 152 | 0.9 | 6.1 | 0.00 | 0.00 | 0.00 | 100 | 1005.8 |
| 20260505112802 | 74 | 195 | 1.7 | 6.1 | 0.00 | 0.00 | 0.00 | 100 | 1005.8 |
| 20260505112703 | 74 | 159 | 1.7 | 6.1 | 0.00 | 0.00 | 0.00 | 100 | 1005.8 |
| 20260505112603 | 74 | 169 | 1.7 | 6.1 | 0.00 | 0.00 | 0.00 | 100 | 1005.7 |
| 20260505112504 | 74 | 168 | 1.7 | 6.1 | 0.00 | 0.00 | 0.00 | 100 | 1005.8 |
| 20260505112402 | 74 | 158 | 1.7 | 6.1 | 0.00 | 0.00 | 0.00 | 100 | 1005.9 |
| 20260505112305 | 74 | 157 | 1.7 | 6.1 | 0.00 | 0.00 | 0.00 | 100 | 1005.9 |
| 20260505112203 | 74 | 159 | 0.9 | 6.1 | 0.00 | 0.00 | 0.00 | 100 | 1005.9 |
| 20260505112104 | 74 | 155 | 1.7 | 6.1 | 0.00 | 0.00 | 0.00 | 100 | 1005.9 |
| 20260505112004 | 74 | 166 | 1.7 | 6.1 | 0.00 | 0.00 | 0.00 | 100 | 1005.8 |
| 20260505111903 | 74 | 175 | 0.9 | 6.1 | 0.00 | 0.00 | 0.00 | 100 | 1005.9 |
| 20260505111801 | 74 | 183 | 1.7 | 6.1 | 0.00 | 0.00 | 0.00 | 100 | 1005.9 |
| 20260505111703 | 74 | 216 | 0.9 | 6.1 | 0.00 | 0.00 | 0.00 | 100 | 1005.9 |
| 20260505111602 | 74 | 227 | 0.9 | 6.1 | 0.00 | 0.00 | 0.00 | 100 | 1006.0 |
| 20260505111503 | 74 | 164 | 0.9 | 6.1 | 0.00 | 0.00 | 0.00 | 100 | 1005.9 |
| 20260505111403 | 74 | 182 | 1.7 | 6.1 | 0.00 | 0.00 | 0.00 | 100 | 1005.9 |
| 20260505111302 | 74 | 204 | 1.7 | 6.1 | 0.00 | 0.00 | 0.00 | 100 | 1005.9 |
| 20260505111203 | 74 | 147 | 0.9 | 4.3 | 0.00 | 0.00 | 0.00 | 100 | 1005.9 |
| 20260505111103 | 74 | 220 | 1.7 | 4.3 | 0.00 | 0.00 | 0.00 | 100 | 1005.9 |
| 20260505111005 | 74 | 162 | 1.7 | 4.3 | 0.00 | 0.00 | 0.00 | 100 | 1005.8 |
| 20260505110903 | 74 | 206 | 1.7 | 3.5 | 0.00 | 0.00 | 0.00 | 100 | 1005.8 |
| 20260505110802 | 74 | 202 | 1.7 | 1.7 | 0.00 | 0.00 | 0.00 | 100 | 1005.8 |
| 20260505110704 | 0 | 0.0 | 0.0 | 0.00 | 0.00 | 0.00 | 1005.8 | ||
| 20260505110604 | 0 | 0.0 | 0.0 | 0.00 | 0.00 | 0.00 | 1005.8 | ||
| 20260505110503 | 73 | 149 | 0.0 | 0.9 | 0.00 | 0.00 | 0.00 | 100 | 1005.9 |
| 20260505110403 | 73 | 149 | 0.0 | 0.9 | 0.00 | 0.00 | 0.00 | 100 | 1005.9 |
| 20260505110303 | 73 | 149 | 0.0 | 1.7 | 0.00 | 0.00 | 0.00 | 100 | 1005.9 |
| 20260505110203 | 73 | 149 | 0.0 | 1.7 | 0.00 | 0.00 | 0.00 | 100 | 1005.9 |
| 20260505102203 | 74 | 178 | 0.0 | 3.5 | 0.00 | 0.00 | 0.00 | 100 | 1005.9 |
| 20260505102104 | 74 | 178 | 0.9 | 3.5 | 0.00 | 0.00 | 0.00 | 100 | 1005.9 |
| 20260505102002 | 74 | 176 | 0.9 | 3.5 | 0.00 | 0.00 | 0.00 | 100 | 1005.9 |
| 20260505101904 | 74 | 162 | 0.9 | 3.5 | 0.00 | 0.00 | 0.00 | 100 | 1005.9 |
| 20260505101802 | 73 | 165 | 1.7 | 3.5 | 0.00 | 0.00 | 0.00 | 100 | 1005.9 |
| 20260505101704 | 73 | 162 | 1.7 | 3.5 | 0.00 | 0.00 | 0.00 | 100 | 1005.9 |
| 20260505101603 | 73 | 154 | 0.9 | 3.5 | 0.00 | 0.00 | 0.00 | 100 | 1005.9 |
| 20260505101503 | 73 | 154 | 0.9 | 3.5 | 0.00 | 0.00 | 0.00 | 100 | 1005.9 |
| 20260505101403 | 73 | 151 | 0.9 | 3.5 | 0.00 | 0.00 | 0.00 | 100 | 1006.0 |
| 20260505101303 | 73 | 221 | 1.7 | 3.5 | 0.00 | 0.00 | 0.00 | 100 | 1006.0 |
| 20260505101203 | 73 | 161 | 1.7 | 3.5 | 0.00 | 0.00 | 0.00 | 100 | 1006.0 |
| 20260505101103 | 73 | 157 | 1.7 | 3.5 | 0.00 | 0.00 | 0.00 | 100 | 1006.0 |
| 20260505101004 | 73 | 179 | 0.9 | 3.5 | 0.00 | 0.00 | 0.00 | 100 | 1006.0 |
| 20260505100902 | 73 | 189 | 0.0 | 3.5 | 0.00 | 0.00 | 0.00 | 100 | 1006.0 |
| 20260505100803 | 73 | 145 | 0.0 | 3.5 | 0.00 | 0.00 | 0.00 | 100 | 1006.1 |
| 20260505100704 | 73 | 173 | 0.0 | 3.5 | 0.00 | 0.00 | 0.00 | 100 | 1006.1 |
| 20260505100603 | 73 | 173 | 0.9 | 3.5 | 0.00 | 0.00 | 0.00 | 100 | 1006.1 |
| 20260505100504 | 73 | 173 | 1.7 | 3.5 | 0.00 | 0.00 | 0.00 | 100 | 1006.0 |
| 20260505100402 | 73 | 212 | 0.9 | 2.6 | 0.00 | 0.00 | 0.00 | 100 | 1006.0 |
| 20260505100303 | 73 | 159 | 0.9 | 2.6 | 0.00 | 0.00 | 0.00 | 100 | 1006.0 |
| 20260505100203 | 73 | 186 | 0.9 | 2.6 | 0.00 | 0.00 | 0.00 | 100 | 1005.9 |
| 20260505100004 | 73 | 189 | 0.9 | 2.6 | 0.00 | 0.00 | 0.00 | 100 | 1006.0 |
| 20260505095901 | 73 | 180 | 0.9 | 2.6 | 0.00 | 0.00 | 0.00 | 100 | 1005.9 |
| 20260505095802 | 73 | 210 | 0.9 | 2.6 | 0.00 | 0.00 | 0.00 | 100 | 1005.9 |
| 20260505095703 | 73 | 183 | 0.0 | 2.6 | 0.00 | 0.00 | 0.00 | 100 | 1005.9 |
| 20260505095604 | 73 | 219 | 0.9 | 2.6 | 0.00 | 0.00 | 0.00 | 100 | 1005.8 |
| 20260505095502 | 73 | 161 | 0.9 | 4.3 | 0.00 | 0.00 | 0.00 | 100 | 1005.9 |
| 20260505095403 | 73 | 158 | 0.9 | 4.3 | 0.00 | 0.00 | 0.00 | 100 | 1005.9 |
| 20260505095304 | 73 | 161 | 1.7 | 4.3 | 0.00 | 0.00 | 0.00 | 100 | 1005.9 |
| 20260505095202 | 73 | 171 | 0.9 | 4.3 | 0.00 | 0.00 | 0.00 | 100 | 1006.0 |
| 20260505095102 | 73 | 155 | 0.0 | 4.3 | 0.00 | 0.00 | 0.00 | 100 | 1006.0 |
| 20260505095003 | 73 | 164 | 0.0 | 4.3 | 0.00 | 0.00 | 0.00 | 100 | 1006.0 |
| 20260505094904 | 73 | 162 | 0.0 | 4.3 | 0.00 | 0.00 | 0.00 | 100 | 1006.1 |
| 20260505094804 | 73 | 162 | 1.7 | 4.3 | 0.00 | 0.00 | 0.00 | 100 | 1006.0 |
| 20260505094703 | 73 | 162 | 1.7 | 4.3 | 0.00 | 0.00 | 0.00 | 100 | 1006.1 |
| 20260505094603 | 73 | 133 | 1.7 | 4.3 | 0.00 | 0.00 | 0.00 | 100 | 1006.1 |
| 20260505094504 | 72 | 185 | 0.0 | 3.5 | 0.00 | 0.00 | 0.00 | 100 | 1006.1 |
| 20260505094404 | 72 | 192 | 0.0 | 3.5 | 0.00 | 0.00 | 0.00 | 100 | 1006.2 |
| 20260505094303 | 72 | 155 | 0.9 | 3.5 | 0.00 | 0.00 | 0.00 | 100 | 1006.2 |
| 20260505094203 | 72 | 154 | 0.9 | 3.5 | 0.00 | 0.00 | 0.00 | 100 | 1006.2 |
| 20260505094104 | 72 | 165 | 0.9 | 3.5 | 0.00 | 0.00 | 0.00 | 100 | 1006.2 |
| 20260505094002 | 72 | 164 | 1.7 | 3.5 | 0.00 | 0.00 | 0.00 | 100 | 1006.2 |
| 20260505093903 | 72 | 169 | 1.7 | 3.5 | 0.00 | 0.00 | 0.00 | 100 | 1006.2 |
| 20260505093802 | 72 | 164 | 0.9 | 2.6 | 0.00 | 0.00 | 0.00 | 100 | 1006.2 |
| 20260505093702 | 72 | 164 | 0.9 | 2.6 | 0.00 | 0.00 | 0.00 | 100 | 1006.1 |
| 20260505093603 | 72 | 166 | 0.9 | 2.6 | 0.00 | 0.00 | 0.00 | 100 | 1006.1 |
| 20260505093504 | 72 | 171 | 0.0 | 2.6 | 0.00 | 0.00 | 0.00 | 100 | 1006.1 |
| 20260505093402 | 72 | 171 | 0.0 | 2.6 | 0.00 | 0.00 | 0.00 | 100 | 1006.2 |
| 20260505093302 | 72 | 165 | 0.0 | 2.6 | 0.00 | 0.00 | 0.00 | 100 | 1006.2 |
| 20260505093203 | 72 | 157 | 0.0 | 2.6 | 0.00 | 0.00 | 0.00 | 100 | 1006.1 |
| 20260505093103 | 72 | 157 | 0.0 | 2.6 | 0.00 | 0.00 | 0.00 | 100 | 1006.1 |
| 20260505093004 | 72 | 157 | 0.0 | 2.6 | 0.00 | 0.00 | 0.00 | 100 | 1006.1 |
| 20260505092902 | 72 | 152 | 0.9 | 2.6 | 0.00 | 0.00 | 0.00 | 100 | 1006.1 |
| 20260505092805 | 72 | 152 | 0.9 | 2.6 | 0.00 | 0.00 | 0.00 | 100 | 1006.1 |
| 20260505092703 | 72 | 162 | 0.0 | 2.6 | 0.00 | 0.00 | 0.00 | 100 | 1006.1 |
| 20260505092603 | 72 | 157 | 0.0 | 2.6 | 0.00 | 0.00 | 0.00 | 100 | 1006.1 |
| 20260505092502 | 72 | 157 | 1.7 | 2.6 | 0.00 | 0.00 | 0.00 | 100 | 1006.0 |
| 20260505092403 | 72 | 157 | 0.9 | 2.6 | 0.00 | 0.00 | 0.00 | 100 | 1006.1 |
| 20260505092305 | 72 | 157 | 0.9 | 1.7 | 0.00 | 0.00 | 0.00 | 100 | 1006.2 |
| 20260505092204 | 72 | 162 | 0.0 | 1.7 | 0.00 | 0.00 | 0.00 | 100 | 1006.1 |
| 20260505092102 | 72 | 162 | 0.9 | 1.7 | 0.00 | 0.00 | 0.00 | 100 | 1006.1 |
| 20260505092003 | 72 | 165 | 0.9 | 1.7 | 0.00 | 0.00 | 0.00 | 100 | 1006.1 |
| 20260505091902 | 72 | 171 | 0.9 | 1.7 | 0.00 | 0.00 | 0.00 | 100 | 1006.2 |
| 20260505091802 | 72 | 176 | 0.0 | 0.9 | 0.00 | 0.00 | 0.00 | 100 | 1006.2 |
| 20260505091703 | 72 | 176 | 0.0 | 0.9 | 0.00 | 0.00 | 0.00 | 100 | 1006.2 |
| 20260505091602 | 72 | 180 | 0.0 | 0.9 | 0.00 | 0.00 | 0.00 | 100 | 1006.2 |
| 20260505091502 | 72 | 180 | 0.9 | 0.9 | 0.00 | 0.00 | 0.00 | 100 | 1006.2 |
| 20260505091403 | 72 | 182 | 0.0 | 0.9 | 0.00 | 0.00 | 0.00 | 100 | 1006.2 |
| 20260505091303 | 72 | 182 | 0.0 | 2.6 | 0.00 | 0.00 | 0.00 | 100 | 1006.2 |
| 20260505091202 | 72 | 182 | 0.0 | 3.5 | 0.00 | 0.00 | 0.00 | 100 | 1006.2 |
| 20260505091103 | 72 | 182 | 0.0 | 4.3 | 0.00 | 0.00 | 0.00 | 100 | 1006.1 |
| 20260505091003 | 72 | 182 | 0.0 | 4.3 | 0.00 | 0.00 | 0.00 | 100 | 1006.2 |
| 20260505090903 | 72 | 182 | 0.0 | 4.3 | 0.00 | 0.00 | 0.00 | 100 | 1006.2 |
| 20260505090802 | 72 | 182 | 0.0 | 4.3 | 0.00 | 0.00 | 0.00 | 100 | 1006.3 |
| 20260505090703 | 72 | 182 | 0.0 | 4.3 | 0.00 | 0.00 | 0.00 | 100 | 1006.2 |
| 20260505090603 | 72 | 182 | 0.0 | 4.3 | 0.00 | 0.00 | 0.00 | 100 | 1006.3 |
| 20260505090503 | 72 | 182 | 0.9 | 4.3 | 0.00 | 0.00 | 0.00 | 100 | 1006.3 |
| 20260505090403 | 72 | 182 | 1.7 | 4.3 | 0.00 | 0.00 | 0.00 | 100 | 1006.3 |
| 20260505090302 | 72 | 192 | 1.7 | 4.3 | 0.00 | 0.00 | 0.00 | 100 | 1006.4 |
| 20260505090203 | 72 | 149 | 0.9 | 4.3 | 0.00 | 0.00 | 0.00 | 100 | 1006.4 |
| 20260505090004 | 72 | 159 | 0.0 | 0.0 | 0.00 | 0.00 | 0.00 | 100 | 1006.4 |
| 20260505085904 | 71 | 159 | 0.0 | 0.0 | 0.00 | 0.00 | 0.00 | 100 | 1006.4 |
| 20260505085803 | 71 | 159 | 0.0 | 0.0 | 0.00 | 0.00 | 0.00 | 100 | 1006.3 |
| 20260505085703 | 71 | 159 | 0.0 | 0.0 | 0.00 | 0.00 | 0.00 | 100 | 1006.3 |
| 20260505085603 | 71 | 159 | 0.0 | 0.0 | 0.00 | 0.00 | 0.00 | 100 | 1006.3 |
| 20260505085505 | 71 | 159 | 0.0 | 0.0 | 0.00 | 0.00 | 0.00 | 100 | 1006.4 |
| 20260505085403 | 71 | 159 | 0.0 | 0.0 | 0.00 | 0.00 | 0.00 | 100 | 1006.4 |
| 20260505085304 | 71 | 158 | 0.0 | 0.9 | 0.00 | 0.00 | 0.00 | 100 | 1006.3 |
| 20260505085202 | 71 | 158 | 0.0 | 2.6 | 0.00 | 0.00 | 0.00 | 100 | 1006.3 |
| 20260505085102 | 71 | 159 | 0.0 | 2.6 | 0.00 | 0.00 | 0.00 | 100 | 1006.4 |
| 20260505085004 | 71 | 159 | 0.0 | 2.6 | 0.00 | 0.00 | 0.00 | 100 | 1006.3 |